Time,TemperatureF,DewpointF,PressureIn,WindDirection,WindDirectionDegrees,WindSpeedMPH,WindSpeedGustMPH,Humidity,HourlyPrecipIn,Conditions,Clouds,dailyrainin,SoftwareType,DateUTC
2013-11-24 00:00:00,42.7,27.1,30.01,ENE,68,2.3,3.4,54,0.00,,,0.00,WUHU216HW,2013-11-24 08:00:00,
2013-11-24 00:01:00,42.5,26.9,30.01,ENE,68,2.0,3.4,54,0.00,,,0.00,WUHU216HW,2013-11-24 08:01:00,
2013-11-24 00:02:00,42.5,26.9,30.01,ENE,68,0.8,3.4,54,0.00,,,0.00,WUHU216HW,2013-11-24 08:02:00,
2013-11-24 00:03:00,42.3,26.7,30.01,ENE,68,0.2,3.4,54,0.00,,,0.00,WUHU216HW,2013-11-24 08:03:00,
2013-11-24 00:04:00,42.1,27.5,30.01,ENE,70,1.8,3.4,56,0.00,,,0.00,WUHU216HW,2013-11-24 08:04:00,
2013-11-24 00:05:00,41.9,26.9,30.01,East,91,1.4,3.4,55,0.00,,,0.00,WUHU216HW,2013-11-24 08:05:00,
2013-11-24 00:06:00,41.8,26.7,30.01,ESE,109,1.1,3.4,55,0.00,,,0.00,WUHU216HW,2013-11-24 08:06:00,
2013-11-24 00:07:00,41.8,26.7,30.01,ESE,103,0.8,3.4,55,0.00,,,0.00,WUHU216HW,2013-11-24 08:07:00,
2013-11-24 00:08:00,41.4,26.4,30.00,NNE,23,1.8,3.4,55,0.00,,,0.00,WUHU216HW,2013-11-24 08:08:00,
2013-11-24 00:09:00,41.4,26.4,30.00,NE,45,1.6,3.4,55,0.00,,,0.00,WUHU216HW,2013-11-24 08:09:00,
2013-11-24 00:10:00,41.4,26.4,30.00,ESE,113,2.0,2.0,55,0.00,,,0.00,WUHU216HW,2013-11-24 08:10:00,
2013-11-24 00:11:00,41.6,26.6,30.00,SSE,158,4.0,4.0,55,0.00,,,0.00,WUHU216HW,2013-11-24 08:11:00,
2013-11-24 00:12:00,41.4,26.4,30.01,SSE,149,3.5,5.1,55,0.00,,,0.00,WUHU216HW,2013-11-24 08:12:00,
2013-11-24 00:13:00,41.4,26.4,30.01,SE,142,3.0,5.1,55,0.00,,,0.00,WUHU216HW,2013-11-24 08:13:00,
2013-11-24 00:14:00,41.4,26.4,30.00,ESE,119,1.9,5.1,55,0.00,,,0.00,WUHU216HW,2013-11-24 08:14:00,
2013-11-24 00:15:00,41.4,26.4,30.00,ESE,113,1.6,5.1,55,0.00,,,0.00,WUHU216HW,2013-11-24 08:15:00,
2013-11-24 00:16:00,41.2,26.2,30.01,ESE,115,1.2,5.1,55,0.00,,,0.00,WUHU216HW,2013-11-24 08:16:00,
2013-11-24 00:17:00,41.2,26.2,30.01,SE,127,0.8,5.1,55,0.00,,,0.00,WUHU216HW,2013-11-24 08:17:00,
2013-11-24 00:18:00,41.0,26.0,30.01,SE,135,0.9,5.1,55,0.00,,,0.00,WUHU216HW,2013-11-24 08:18:00,
2013-11-24 00:19:00,41.0,26.0,30.01,North,0,1.6,5.1,55,0.00,,,0.00,WUHU216HW,2013-11-24 08:19:00,
2013-11-24 00:20:00,41.0,26.0,30.01,North,0,1.8,5.1,55,0.00,,,0.00,WUHU216HW,2013-11-24 08:20:00,
2013-11-24 00:21:00,41.2,26.2,30.00,North,0,2.9,5.1,55,0.00,,,0.00,WUHU216HW,2013-11-24 08:21:00,
2013-11-24 00:22:00,41.4,26.4,30.00,North,0,2.7,3.4,55,0.00,,,0.00,WUHU216HW,2013-11-24 08:22:00,
2013-11-24 00:23:00,41.8,26.7,30.00,North,0,2.1,3.4,55,0.00,,,0.00,WUHU216HW,2013-11-24 08:23:00,
2013-11-24 00:24:00,41.9,26.5,30.00,ESE,113,2.2,3.4,54,0.00,,,0.00,WUHU216HW,2013-11-24 08:24:00,
2013-11-24 00:25:00,41.9,26.5,30.00,East,90,2.5,3.4,54,0.00,,,0.00,WUHU216HW,2013-11-24 08:25:00,
2013-11-24 00:26:00,41.9,26.5,30.00,East,89,2.2,3.4,54,0.00,,,0.00,WUHU216HW,2013-11-24 08:26:00,
2013-11-24 00:27:00,41.9,26.5,30.00,East,79,1.7,3.4,54,0.00,,,0.00,WUHU216HW,2013-11-24 08:27:00,
2013-11-24 00:28:00,41.8,26.3,30.00,ENE,68,2.0,3.4,54,0.00,,,0.00,WUHU216HW,2013-11-24 08:28:00,
2013-11-24 00:29:00,41.8,26.3,30.00,NE,45,2.5,3.4,54,0.00,,,0.00,WUHU216HW,2013-11-24 08:29:00,
2013-11-24 00:30:00,41.6,26.1,30.00,NE,45,2.9,3.4,54,0.00,,,0.00,WUHU216HW,2013-11-24 08:30:00,
2013-11-24 00:31:00,41.4,25.9,30.00,NE,45,2.6,2.9,54,0.00,,,0.00,WUHU216HW,2013-11-24 08:31:00,
2013-11-24 00:32:00,41.4,25.9,30.00,NE,45,2.4,2.9,54,0.00,,,0.00,WUHU216HW,2013-11-24 08:32:00,
2013-11-24 00:33:00,41.2,26.2,30.00,NE,45,2.7,3.1,55,0.00,,,0.00,WUHU216HW,2013-11-24 08:33:00,
2013-11-24 00:34:00,41.0,26.5,30.00,NE,45,2.7,3.1,56,0.00,,,0.00,WUHU216HW,2013-11-24 08:34:00,
2013-11-24 00:35:00,41.0,26.5,30.00,NE,45,2.4,3.1,56,0.00,,,0.00,WUHU216HW,2013-11-24 08:35:00,
2013-11-24 00:36:00,40.9,26.3,30.00,NE,45,2.0,3.1,56,0.00,,,0.00,WUHU216HW,2013-11-24 08:36:00,
2013-11-24 00:37:00,40.9,26.3,30.00,NE,45,2.0,3.1,56,0.00,,,0.00,WUHU216HW,2013-11-24 08:37:00,
2013-11-24 00:38:00,40.7,26.1,30.00,NE,45,2.2,3.1,56,0.00,,,0.00,WUHU216HW,2013-11-24 08:38:00,
2013-11-24 00:39:00,40.7,26.6,30.00,NNE,23,2.9,3.1,57,0.00,,,0.00,WUHU216HW,2013-11-24 08:39:00,
2013-11-24 00:40:00,40.7,26.6,30.00,NNE,23,3.1,3.1,57,0.00,,,0.00,WUHU216HW,2013-11-24 08:40:00,
2013-11-24 00:41:00,40.5,26.4,30.01,NNE,23,3.2,4.0,57,0.00,,,0.00,WUHU216HW,2013-11-24 08:41:00,
2013-11-24 00:42:00,40.3,26.2,30.01,NNE,24,2.6,4.0,57,0.00,,,0.00,WUHU216HW,2013-11-24 08:42:00,
2013-11-24 00:43:00,40.3,26.2,30.01,NE,34,1.5,4.0,57,0.00,,,0.00,WUHU216HW,2013-11-24 08:43:00,
2013-11-24 00:44:00,40.1,27.4,30.01,NNE,23,1.8,4.0,60,0.00,,,0.00,WUHU216HW,2013-11-24 08:44:00,
2013-11-24 00:45:00,40.0,26.7,30.01,NNE,23,2.0,4.0,59,0.00,,,0.00,WUHU216HW,2013-11-24 08:45:00,
2013-11-24 00:46:00,40.0,26.3,30.01,NNE,23,1.9,4.0,58,0.00,,,0.00,WUHU216HW,2013-11-24 08:46:00,
2013-11-24 00:47:00,39.8,26.1,30.01,NNE,23,3.1,4.0,58,0.00,,,0.00,WUHU216HW,2013-11-24 08:47:00,
2013-11-24 00:48:00,39.8,26.6,30.01,NNE,23,2.8,4.0,59,0.00,,,0.00,WUHU216HW,2013-11-24 08:48:00,
2013-11-24 00:49:00,39.8,26.6,30.01,NNE,23,2.8,4.0,59,0.00,,,0.00,WUHU216HW,2013-11-24 08:49:00,
2013-11-24 00:50:00,39.8,26.6,30.01,NNE,23,2.9,4.0,59,0.00,,,0.00,WUHU216HW,2013-11-24 08:50:00,
2013-11-24 00:51:00,39.8,26.6,30.01,NNE,23,3.8,3.8,59,0.00,,,0.00,WUHU216HW,2013-11-24 08:51:00,
2013-11-24 00:52:00,39.8,26.6,30.01,NNE,23,3.1,3.8,59,0.00,,,0.00,WUHU216HW,2013-11-24 08:52:00,
2013-11-24 00:53:00,40.0,26.7,30.01,NNE,18,2.8,3.8,59,0.00,,,0.00,WUHU216HW,2013-11-24 08:53:00,
2013-11-24 00:54:00,40.0,26.7,30.01,North,8,2.1,3.8,59,0.00,,,0.00,WUHU216HW,2013-11-24 08:54:00,
2013-11-24 00:55:00,40.0,26.7,30.01,North,0,1.3,3.8,59,0.00,,,0.00,WUHU216HW,2013-11-24 08:55:00,
2013-11-24 00:56:00,40.1,26.9,30.01,North,357,0.8,3.8,59,0.00,,,0.00,WUHU216HW,2013-11-24 08:56:00,
2013-11-24 00:57:00,40.3,27.5,30.01,North,0,2.5,3.8,60,0.00,,,0.00,WUHU216HW,2013-11-24 08:57:00,
2013-11-24 00:58:00,40.3,27.5,30.01,North,0,2.5,3.8,60,0.00,,,0.00,WUHU216HW,2013-11-24 08:58:00,
2013-11-24 00:59:00,40.3,27.5,30.01,NNE,23,5.4,5.4,60,0.00,,,0.00,WUHU216HW,2013-11-24 08:59:00,
2013-11-24 01:00:00,40.3,27.9,30.01,North,8,3.8,5.4,61,0.00,,,0.00,WUHU216HW,2013-11-24 09:00:00,
2013-11-24 01:01:00,40.3,27.9,30.01,NE,45,4.3,5.4,61,0.00,,,0.00,WUHU216HW,2013-11-24 09:01:00,
2013-11-24 01:02:00,40.1,28.1,30.01,NE,51,4.0,5.4,62,0.00,,,0.00,WUHU216HW,2013-11-24 09:02:00,
2013-11-24 01:03:00,40.1,28.1,30.01,ENE,58,3.6,5.4,62,0.00,,,0.00,WUHU216HW,2013-11-24 09:03:00,
2013-11-24 01:04:00,40.0,27.9,30.01,NE,45,3.4,5.4,62,0.00,,,0.00,WUHU216HW,2013-11-24 09:04:00,
2013-11-24 01:05:00,40.0,27.9,30.01,ENE,63,3.1,5.4,62,0.00,,,0.00,WUHU216HW,2013-11-24 09:05:00,
2013-11-24 01:06:00,40.0,27.5,30.01,ENE,68,3.4,5.4,61,0.00,,,0.00,WUHU216HW,2013-11-24 09:06:00,
2013-11-24 01:07:00,39.8,27.4,30.01,East,94,3.0,5.4,61,0.00,,,0.00,WUHU216HW,2013-11-24 09:07:00,
2013-11-24 01:08:00,39.6,27.2,30.01,ESE,108,2.3,5.4,61,0.00,,,0.00,WUHU216HW,2013-11-24 09:08:00,
2013-11-24 01:09:00,39.6,27.2,30.01,East,90,2.0,5.4,61,0.00,,,0.00,WUHU216HW,2013-11-24 09:09:00,
2013-11-24 01:10:00,39.4,27.0,30.01,ESE,113,2.5,5.4,61,0.00,,,0.00,WUHU216HW,2013-11-24 09:10:00,
2013-11-24 01:11:00,39.4,27.0,30.01,East,97,1.7,4.3,61,0.00,,,0.00,WUHU216HW,2013-11-24 09:11:00,
2013-11-24 01:12:00,39.2,26.8,30.01,East,90,2.0,3.6,61,0.00,,,0.00,WUHU216HW,2013-11-24 09:12:00,
2013-11-24 01:13:00,39.2,26.8,30.01,East,90,2.5,3.6,61,0.00,,,0.00,WUHU216HW,2013-11-24 09:13:00,
2013-11-24 01:14:00,39.1,26.6,30.01,East,90,2.5,3.4,61,0.00,,,0.00,WUHU216HW,2013-11-24 09:14:00,
2013-11-24 01:15:00,39.1,26.6,30.01,East,93,2.6,3.4,61,0.00,,,0.00,WUHU216HW,2013-11-24 09:15:00,
2013-11-24 01:16:00,38.9,26.6,30.01,ESE,113,3.1,3.4,61,0.00,,,0.00,WUHU216HW,2013-11-24 09:16:00,
2013-11-24 01:17:00,38.9,26.1,30.01,ESE,113,3.6,3.6,60,0.00,,,0.00,WUHU216HW,2013-11-24 09:17:00,
2013-11-24 01:18:00,38.9,26.1,30.01,ESE,117,3.0,3.6,60,0.00,,,0.00,WUHU216HW,2013-11-24 09:18:00,
2013-11-24 01:19:00,38.7,26.0,30.01,ESE,116,2.9,3.6,60,0.00,,,0.00,WUHU216HW,2013-11-24 09:19:00,
2013-11-24 01:20:00,38.7,26.0,30.01,ESE,121,2.3,3.6,60,0.00,,,0.00,WUHU216HW,2013-11-24 09:20:00,
2013-11-24 01:21:00,38.7,26.4,30.01,ESE,107,2.4,3.8,61,0.00,,,0.00,WUHU216HW,2013-11-24 09:21:00,
2013-11-24 01:22:00,38.7,26.4,30.01,East,99,2.1,3.8,61,0.00,,,0.00,WUHU216HW,2013-11-24 09:22:00,
2013-11-24 01:23:00,38.7,26.7,30.01,ENE,68,2.2,3.8,62,0.00,,,0.00,WUHU216HW,2013-11-24 09:23:00,
2013-11-24 01:24:00,38.7,26.7,30.01,NE,45,3.8,3.8,62,0.00,,,0.00,WUHU216HW,2013-11-24 09:24:00,
2013-11-24 01:25:00,38.7,26.4,30.01,NNE,23,3.4,3.8,61,0.00,,,0.00,WUHU216HW,2013-11-24 09:25:00,
2013-11-24 01:26:00,38.7,26.4,30.00,NE,37,3.5,4.0,61,0.00,,,0.00,WUHU216HW,2013-11-24 09:26:00,
2013-11-24 01:27:00,38.9,26.6,30.00,ENE,64,2.9,4.0,61,0.00,,,0.00,WUHU216HW,2013-11-24 09:27:00,
2013-11-24 01:28:00,38.9,26.6,30.00,ENE,68,3.1,4.0,61,0.00,,,0.00,WUHU216HW,2013-11-24 09:28:00,
2013-11-24 01:29:00,38.9,26.6,30.00,NE,45,2.5,4.0,61,0.00,,,0.00,WUHU216HW,2013-11-24 09:29:00,
2013-11-24 01:30:00,39.1,26.6,30.00,ENE,68,4.0,4.0,61,0.00,,,0.00,WUHU216HW,2013-11-24 09:30:00,
2013-11-24 01:31:00,39.2,26.5,30.00,NE,45,4.0,4.3,60,0.00,,,0.00,WUHU216HW,2013-11-24 09:31:00,
2013-11-24 01:32:00,39.2,26.5,30.00,NE,49,3.7,4.3,60,0.00,,,0.00,WUHU216HW,2013-11-24 09:32:00,
2013-11-24 01:33:00,39.4,26.6,30.00,NE,50,3.0,4.3,60,0.00,,,0.00,WUHU216HW,2013-11-24 09:33:00,
2013-11-24 01:34:00,39.4,26.6,30.00,ENE,68,3.6,4.3,60,0.00,,,0.00,WUHU216HW,2013-11-24 09:34:00,
2013-11-24 01:35:00,39.6,26.4,30.00,ENE,68,3.4,4.3,59,0.00,,,0.00,WUHU216HW,2013-11-24 09:35:00,
2013-11-24 01:36:00,39.6,26.4,30.00,ENE,65,3.3,4.3,59,0.00,,,0.00,WUHU216HW,2013-11-24 09:36:00,
2013-11-24 01:37:00,39.8,26.6,30.00,East,83,2.3,4.3,59,0.00,,,0.00,WUHU216HW,2013-11-24 09:37:00,
2013-11-24 01:38:00,39.8,26.6,30.00,East,90,2.5,4.3,59,0.00,,,0.00,WUHU216HW,2013-11-24 09:38:00,
2013-11-24 01:39:00,39.8,26.6,30.00,East,90,2.5,4.3,59,0.00,,,0.00,WUHU216HW,2013-11-24 09:39:00,
2013-11-24 01:40:00,39.8,26.6,30.00,East,88,2.5,4.3,59,0.00,,,0.00,WUHU216HW,2013-11-24 09:40:00,
2013-11-24 01:41:00,39.8,26.6,30.00,East,90,2.5,4.0,59,0.00,,,0.00,WUHU216HW,2013-11-24 09:41:00,
2013-11-24 01:42:00,39.8,26.6,30.00,East,90,2.5,4.0,59,0.00,,,0.00,WUHU216HW,2013-11-24 09:42:00,
2013-11-24 01:43:00,39.8,26.6,30.00,East,91,1.9,4.0,59,0.00,,,0.00,WUHU216HW,2013-11-24 09:43:00,
2013-11-24 01:44:00,39.8,26.6,30.00,East,90,1.8,4.0,59,0.00,,,0.00,WUHU216HW,2013-11-24 09:44:00,
2013-11-24 01:45:00,39.8,26.6,30.00,ENE,76,2.2,3.4,59,0.00,,,0.00,WUHU216HW,2013-11-24 09:45:00,
2013-11-24 01:46:00,39.8,26.6,30.00,ENE,68,2.3,3.4,59,0.00,,,0.00,WUHU216HW,2013-11-24 09:46:00,
2013-11-24 01:47:00,39.8,26.6,30.00,ENE,68,2.5,3.4,59,0.00,,,0.00,WUHU216HW,2013-11-24 09:47:00,
2013-11-24 01:48:00,39.8,26.6,30.00,ENE,70,2.1,3.4,59,0.00,,,0.00,WUHU216HW,2013-11-24 09:48:00,
2013-11-24 01:49:00,39.8,26.6,30.00,ENE,68,2.5,3.4,59,0.00,,,0.00,WUHU216HW,2013-11-24 09:49:00,
2013-11-24 01:50:00,40.0,26.7,30.00,ENE,68,2.7,3.4,59,0.00,,,0.00,WUHU216HW,2013-11-24 09:50:00,
2013-11-24 01:51:00,39.8,26.6,30.00,ENE,68,2.6,2.7,59,0.00,,,0.00,WUHU216HW,2013-11-24 09:51:00,
2013-11-24 01:52:00,39.8,26.6,30.00,ENE,68,2.7,2.7,59,0.00,,,0.00,WUHU216HW,2013-11-24 09:52:00,
2013-11-24 01:53:00,39.8,26.6,30.00,ENE,69,2.6,2.7,59,0.00,,,0.00,WUHU216HW,2013-11-24 09:53:00,
2013-11-24 01:54:00,39.8,26.6,30.00,East,79,2.4,2.7,59,0.00,,,0.00,WUHU216HW,2013-11-24 09:54:00,
2013-11-24 01:55:00,39.8,26.6,29.99,East,88,2.0,2.7,59,0.00,,,0.00,WUHU216HW,2013-11-24 09:55:00,
2013-11-24 01:56:00,39.8,26.6,30.00,ESE,113,1.8,2.7,59,0.00,,,0.00,WUHU216HW,2013-11-24 09:56:00,
2013-11-24 01:57:00,39.8,26.6,30.00,SE,135,1.8,2.7,59,0.00,,,0.00,WUHU216HW,2013-11-24 09:57:00,
2013-11-24 01:58:00,39.6,26.4,30.00,ESE,122,1.7,2.7,59,0.00,,,0.00,WUHU216HW,2013-11-24 09:58:00,
2013-11-24 01:59:00,39.6,26.4,29.99,ENE,68,2.2,2.7,59,0.00,,,0.00,WUHU216HW,2013-11-24 09:59:00,
2013-11-24 02:00:00,39.4,26.2,30.00,ENE,78,1.9,2.7,59,0.00,,,0.00,WUHU216HW,2013-11-24 10:00:00,
2013-11-24 02:01:00,39.4,26.2,30.00,ENE,68,2.7,2.7,59,0.00,,,0.00,WUHU216HW,2013-11-24 10:01:00,
2013-11-24 02:02:00,39.2,26.5,30.00,ENE,64,2.7,2.7,60,0.00,,,0.00,WUHU216HW,2013-11-24 10:02:00,
2013-11-24 02:03:00,39.2,26.5,30.00,NE,45,2.9,2.9,60,0.00,,,0.00,WUHU216HW,2013-11-24 10:03:00,
2013-11-24 02:04:00,39.2,26.5,29.99,NE,45,2.4,2.9,60,0.00,,,0.00,WUHU216HW,2013-11-24 10:04:00,
2013-11-24 02:05:00,39.4,26.2,30.00,NE,45,1.7,2.9,59,0.00,,,0.00,WUHU216HW,2013-11-24 10:05:00,
2013-11-24 02:06:00,39.2,26.0,30.00,NE,45,0.8,2.9,59,0.00,,,0.00,WUHU216HW,2013-11-24 10:06:00,
2013-11-24 02:07:00,39.4,26.2,30.00,NE,45,0.2,2.9,59,0.00,,,0.00,WUHU216HW,2013-11-24 10:07:00,
2013-11-24 02:08:00,39.4,26.2,30.00,NE,45,0.0,2.9,59,0.00,,,0.00,WUHU216HW,2013-11-24 10:08:00,
2013-11-24 02:09:00,39.2,26.0,30.00,NE,45,1.3,2.9,59,0.00,,,0.00,WUHU216HW,2013-11-24 10:09:00,
2013-11-24 02:10:00,39.2,26.5,30.00,NNE,23,2.9,2.9,60,0.00,,,0.00,WUHU216HW,2013-11-24 10:10:00,
2013-11-24 02:11:00,39.4,26.6,30.00,NE,45,2.5,3.1,60,0.00,,,0.00,WUHU216HW,2013-11-24 10:11:00,
2013-11-24 02:12:00,39.4,26.6,30.00,NE,45,3.4,3.4,60,0.00,,,0.00,WUHU216HW,2013-11-24 10:12:00,
2013-11-24 02:13:00,39.6,26.8,30.00,NE,45,3.8,4.0,60,0.00,,,0.00,WUHU216HW,2013-11-24 10:13:00,
2013-11-24 02:14:00,39.6,26.8,30.00,NE,45,3.6,4.0,60,0.00,,,0.00,WUHU216HW,2013-11-24 10:14:00,
2013-11-24 02:15:00,39.8,27.0,30.00,NE,45,3.0,4.0,60,0.00,,,0.00,WUHU216HW,2013-11-24 10:15:00,
2013-11-24 02:16:00,39.8,27.0,30.00,NE,45,3.4,4.0,60,0.00,,,0.00,WUHU216HW,2013-11-24 10:16:00,
2013-11-24 02:17:00,40.0,26.7,30.00,NE,36,3.3,4.0,59,0.00,,,0.00,WUHU216HW,2013-11-24 10:17:00,
2013-11-24 02:18:00,40.0,26.7,30.00,NNE,26,2.7,4.0,59,0.00,,,0.00,WUHU216HW,2013-11-24 10:18:00,
2013-11-24 02:19:00,40.0,26.7,30.00,NNE,23,2.2,4.0,59,0.00,,,0.00,WUHU216HW,2013-11-24 10:19:00,
2013-11-24 02:20:00,40.0,26.7,30.00,NNE,23,2.0,4.0,59,0.00,,,0.00,WUHU216HW,2013-11-24 10:20:00,
2013-11-24 02:21:00,40.1,26.9,30.00,NE,45,3.1,4.0,59,0.00,,,0.00,WUHU216HW,2013-11-24 10:21:00,
2013-11-24 02:22:00,40.1,26.9,30.00,NNE,23,3.6,4.3,59,0.00,,,0.00,WUHU216HW,2013-11-24 10:22:00,
2013-11-24 02:23:00,40.1,26.9,30.00,NE,45,3.8,4.3,59,0.00,,,0.00,WUHU216HW,2013-11-24 10:23:00,
2013-11-24 02:24:00,40.1,26.9,30.00,NE,39,3.7,4.3,59,0.00,,,0.00,WUHU216HW,2013-11-24 10:24:00,
2013-11-24 02:25:00,40.3,27.1,30.00,NE,45,3.3,4.3,59,0.00,,,0.00,WUHU216HW,2013-11-24 10:25:00,
2013-11-24 02:26:00,40.3,27.9,30.00,NE,45,2.7,4.3,61,0.00,,,0.00,WUHU216HW,2013-11-24 10:26:00,
2013-11-24 02:27:00,40.3,27.9,30.00,NE,45,4.0,4.3,61,0.00,,,0.00,WUHU216HW,2013-11-24 10:27:00,
2013-11-24 02:28:00,40.3,27.5,30.00,NE,45,3.5,4.3,60,0.00,,,0.00,WUHU216HW,2013-11-24 10:28:00,
2013-11-24 02:29:00,40.1,27.4,30.00,ENE,68,3.4,4.3,60,0.00,,,0.00,WUHU216HW,2013-11-24 10:29:00,
2013-11-24 02:30:00,40.1,27.4,30.00,NE,53,3.0,4.3,60,0.00,,,0.00,WUHU216HW,2013-11-24 10:30:00,
2013-11-24 02:31:00,40.1,27.4,30.00,NE,45,2.9,4.3,60,0.00,,,0.00,WUHU216HW,2013-11-24 10:31:00,
2013-11-24 02:32:00,40.0,27.2,30.00,NE,45,4.0,4.0,60,0.00,,,0.00,WUHU216HW,2013-11-24 10:32:00,
2013-11-24 02:33:00,40.0,27.2,30.00,NE,45,4.3,4.3,60,0.00,,,0.00,WUHU216HW,2013-11-24 10:33:00,
2013-11-24 02:34:00,40.0,27.2,30.00,NE,45,5.1,5.1,60,0.00,,,0.00,WUHU216HW,2013-11-24 10:34:00,
2013-11-24 02:35:00,39.8,27.4,30.00,NE,45,4.6,5.1,61,0.00,,,0.00,WUHU216HW,2013-11-24 10:35:00,
2013-11-24 02:36:00,39.8,27.4,30.00,NE,45,4.0,5.1,61,0.00,,,0.00,WUHU216HW,2013-11-24 10:36:00,
2013-11-24 02:37:00,39.8,27.4,30.00,NE,45,3.6,5.1,61,0.00,,,0.00,WUHU216HW,2013-11-24 10:37:00,
2013-11-24 02:38:00,39.6,27.2,30.00,NE,45,3.0,5.1,61,0.00,,,0.00,WUHU216HW,2013-11-24 10:38:00,
2013-11-24 02:39:00,39.6,27.2,30.00,ENE,68,2.5,5.1,61,0.00,,,0.00,WUHU216HW,2013-11-24 10:39:00,
2013-11-24 02:40:00,39.6,27.2,30.00,NE,45,2.9,5.1,61,0.00,,,0.00,WUHU216HW,2013-11-24 10:40:00,
2013-11-24 02:41:00,39.6,27.2,30.00,NE,48,2.5,5.1,61,0.00,,,0.00,WUHU216HW,2013-11-24 10:41:00,
2013-11-24 02:42:00,39.6,27.2,30.00,ENE,73,2.0,5.1,61,0.00,,,0.00,WUHU216HW,2013-11-24 10:42:00,
2013-11-24 02:43:00,39.6,27.2,30.00,East,90,2.5,5.1,61,0.00,,,0.00,WUHU216HW,2013-11-24 10:43:00,
2013-11-24 02:44:00,39.6,27.2,30.00,ENE,68,3.1,5.1,61,0.00,,,0.00,WUHU216HW,2013-11-24 10:44:00,
2013-11-24 02:45:00,39.6,27.2,30.00,ENE,68,3.4,4.0,61,0.00,,,0.00,WUHU216HW,2013-11-24 10:45:00,
2013-11-24 02:46:00,39.6,27.2,30.00,ENE,68,3.4,3.6,61,0.00,,,0.00,WUHU216HW,2013-11-24 10:46:00,
2013-11-24 02:47:00,39.6,27.2,30.00,ENE,60,3.3,3.6,61,0.00,,,0.00,WUHU216HW,2013-11-24 10:47:00,
2013-11-24 02:48:00,39.6,27.2,30.00,NE,45,4.0,4.0,61,0.00,,,0.00,WUHU216HW,2013-11-24 10:48:00,
2013-11-24 02:49:00,39.6,27.2,30.00,NE,45,3.9,4.0,61,0.00,,,0.00,WUHU216HW,2013-11-24 10:49:00,
2013-11-24 02:50:00,39.6,27.2,30.00,NE,45,4.0,4.3,61,0.00,,,0.00,WUHU216HW,2013-11-24 10:50:00,
2013-11-24 02:51:00,39.6,27.2,30.00,NE,45,3.8,4.3,61,0.00,,,0.00,WUHU216HW,2013-11-24 10:51:00,
2013-11-24 02:52:00,39.4,27.0,30.00,NE,42,3.6,4.3,61,0.00,,,0.00,WUHU216HW,2013-11-24 10:52:00,
2013-11-24 02:53:00,39.4,27.4,30.00,NE,45,3.6,4.3,62,0.00,,,0.00,WUHU216HW,2013-11-24 10:53:00,
2013-11-24 02:54:00,39.4,27.4,30.00,NE,45,3.7,4.3,62,0.00,,,0.00,WUHU216HW,2013-11-24 10:54:00,
2013-11-24 02:55:00,39.4,27.0,30.00,NE,43,3.3,4.3,61,0.00,,,0.00,WUHU216HW,2013-11-24 10:55:00,
2013-11-24 02:56:00,39.4,27.8,30.00,NE,45,5.4,5.4,63,0.00,,,0.00,WUHU216HW,2013-11-24 10:56:00,
2013-11-24 02:57:00,39.2,27.6,30.00,NNE,23,5.8,5.8,63,0.00,,,0.00,WUHU216HW,2013-11-24 10:57:00,
2013-11-24 02:58:00,39.2,27.6,30.00,NE,40,5.3,5.8,63,0.00,,,0.00,WUHU216HW,2013-11-24 10:58:00,
2013-11-24 02:59:00,39.4,27.8,30.00,NE,42,4.7,5.8,63,0.00,,,0.00,WUHU216HW,2013-11-24 10:59:00,
2013-11-24 03:00:00,39.4,27.8,30.00,NE,45,4.3,5.8,63,0.00,,,0.00,WUHU216HW,2013-11-24 11:00:00,
2013-11-24 03:01:00,39.4,27.8,30.00,NE,37,4.2,5.8,63,0.00,,,0.00,WUHU216HW,2013-11-24 11:01:00,
2013-11-24 03:02:00,39.6,28.0,30.00,NE,45,4.5,5.8,63,0.00,,,0.00,WUHU216HW,2013-11-24 11:02:00,
2013-11-24 03:03:00,39.6,28.0,30.00,NE,45,4.5,5.8,63,0.00,,,0.00,WUHU216HW,2013-11-24 11:03:00,
2013-11-24 03:04:00,39.8,28.2,29.99,NE,45,4.2,5.8,63,0.00,,,0.00,WUHU216HW,2013-11-24 11:04:00,
2013-11-24 03:05:00,39.8,28.2,29.99,NE,45,4.0,5.8,63,0.00,,,0.00,WUHU216HW,2013-11-24 11:05:00,
2013-11-24 03:06:00,39.8,28.2,29.99,NE,43,3.2,5.8,63,0.00,,,0.00,WUHU216HW,2013-11-24 11:06:00,
2013-11-24 03:07:00,39.8,28.2,29.99,NE,44,2.5,5.6,63,0.00,,,0.00,WUHU216HW,2013-11-24 11:07:00,
2013-11-24 03:08:00,39.8,28.2,29.99,NE,45,2.2,5.6,63,0.00,,,0.00,WUHU216HW,2013-11-24 11:08:00,
2013-11-24 03:09:00,39.8,28.2,29.99,ENE,68,2.5,5.6,63,0.00,,,0.00,WUHU216HW,2013-11-24 11:09:00,
2013-11-24 03:10:00,40.0,28.4,29.99,ENE,68,2.5,5.6,63,0.00,,,0.00,WUHU216HW,2013-11-24 11:10:00,
2013-11-24 03:11:00,40.0,28.4,29.99,ENE,68,3.4,5.6,63,0.00,,,0.00,WUHU216HW,2013-11-24 11:11:00,
2013-11-24 03:12:00,40.0,28.4,29.99,ENE,68,2.6,5.6,63,0.00,,,0.00,WUHU216HW,2013-11-24 11:12:00,
2013-11-24 03:13:00,40.0,28.4,29.99,ENE,77,1.9,4.0,63,0.00,,,0.00,WUHU216HW,2013-11-24 11:13:00,
2013-11-24 03:14:00,40.0,28.4,29.99,ENE,68,2.2,4.0,63,0.00,,,0.00,WUHU216HW,2013-11-24 11:14:00,
2013-11-24 03:15:00,40.0,28.4,29.99,ENE,68,2.7,4.0,63,0.00,,,0.00,WUHU216HW,2013-11-24 11:15:00,
2013-11-24 03:16:00,39.8,28.2,29.99,ENE,57,2.6,3.4,63,0.00,,,0.00,WUHU216HW,2013-11-24 11:16:00,
2013-11-24 03:17:00,39.8,28.2,29.99,NE,48,2.6,3.4,63,0.00,,,0.00,WUHU216HW,2013-11-24 11:17:00,
2013-11-24 03:18:00,39.8,27.7,29.99,ENE,58,2.2,3.4,62,0.00,,,0.00,WUHU216HW,2013-11-24 11:18:00,
2013-11-24 03:19:00,39.6,27.5,29.99,SE,135,1.8,3.4,62,0.00,,,0.00,WUHU216HW,2013-11-24 11:19:00,
2013-11-24 03:20:00,39.6,27.5,29.99,SE,135,2.2,3.4,62,0.00,,,0.00,WUHU216HW,2013-11-24 11:20:00,
2013-11-24 03:21:00,39.6,27.5,29.98,SSE,158,2.0,3.4,62,0.00,,,0.00,WUHU216HW,2013-11-24 11:21:00,
2013-11-24 03:22:00,39.4,27.4,29.98,SSE,158,2.5,3.1,62,0.00,,,0.00,WUHU216HW,2013-11-24 11:22:00,
2013-11-24 03:23:00,39.4,27.4,29.98,SSE,158,1.9,3.1,62,0.00,,,0.00,WUHU216HW,2013-11-24 11:23:00,
2013-11-24 03:24:00,39.2,27.2,29.98,SSE,158,1.1,3.1,62,0.00,,,0.00,WUHU216HW,2013-11-24 11:24:00,
2013-11-24 03:25:00,39.2,27.2,29.98,SSE,158,1.1,3.1,62,0.00,,,0.00,WUHU216HW,2013-11-24 11:25:00,
2013-11-24 03:26:00,39.2,27.2,29.98,SSE,158,0.9,2.9,62,0.00,,,0.00,WUHU216HW,2013-11-24 11:26:00,
2013-11-24 03:27:00,39.1,27.1,29.98,SE,135,1.3,2.5,62,0.00,,,0.00,WUHU216HW,2013-11-24 11:27:00,
2013-11-24 03:28:00,38.9,26.9,29.98,ESE,113,1.3,2.5,62,0.00,,,0.00,WUHU216HW,2013-11-24 11:28:00,
2013-11-24 03:29:00,38.9,26.9,29.98,ESE,113,1.8,2.5,62,0.00,,,0.00,WUHU216HW,2013-11-24 11:29:00,
2013-11-24 03:30:00,38.7,27.1,29.98,East,90,2.0,2.5,63,0.00,,,0.00,WUHU216HW,2013-11-24 11:30:00,
2013-11-24 03:31:00,38.5,26.9,29.98,East,82,2.1,2.5,63,0.00,,,0.00,WUHU216HW,2013-11-24 11:31:00,
2013-11-24 03:32:00,38.5,26.9,29.98,ENE,68,2.5,2.5,63,0.00,,,0.00,WUHU216HW,2013-11-24 11:32:00,
2013-11-24 03:33:00,38.5,26.9,29.98,ENE,68,2.7,2.7,63,0.00,,,0.00,WUHU216HW,2013-11-24 11:33:00,
2013-11-24 03:34:00,38.3,26.8,29.98,ENE,68,2.7,2.9,63,0.00,,,0.00,WUHU216HW,2013-11-24 11:34:00,
2013-11-24 03:35:00,38.3,26.8,29.98,ENE,73,2.5,2.9,63,0.00,,,0.00,WUHU216HW,2013-11-24 11:35:00,
2013-11-24 03:36:00,38.3,26.8,29.98,East,97,1.5,2.9,63,0.00,,,0.00,WUHU216HW,2013-11-24 11:36:00,
2013-11-24 03:37:00,38.3,26.8,29.98,ESE,113,1.3,2.9,63,0.00,,,0.00,WUHU216HW,2013-11-24 11:37:00,
2013-11-24 03:38:00,38.3,26.8,29.98,ESE,113,1.8,2.9,63,0.00,,,0.00,WUHU216HW,2013-11-24 11:38:00,
2013-11-24 03:39:00,38.2,26.7,29.97,ESE,117,1.4,2.9,63,0.00,,,0.00,WUHU216HW,2013-11-24 11:39:00,
2013-11-24 03:40:00,38.2,26.7,29.97,ESE,123,1.1,2.9,63,0.00,,,0.00,WUHU216HW,2013-11-24 11:40:00,
2013-11-24 03:41:00,38.2,26.7,29.97,SE,135,0.6,2.9,63,0.00,,,0.00,WUHU216HW,2013-11-24 11:41:00,
2013-11-24 03:42:00,38.2,26.7,29.97,SE,135,0.0,2.9,63,0.00,,,0.00,WUHU216HW,2013-11-24 11:42:00,
2013-11-24 03:43:00,38.2,26.7,29.97,ESE,113,1.1,2.9,63,0.00,,,0.00,WUHU216HW,2013-11-24 11:43:00,
2013-11-24 03:44:00,38.0,26.5,29.97,ENE,68,1.6,2.5,63,0.00,,,0.00,WUHU216HW,2013-11-24 11:44:00,
2013-11-24 03:45:00,38.0,26.5,29.97,NE,45,2.7,2.7,63,0.00,,,0.00,WUHU216HW,2013-11-24 11:45:00,
2013-11-24 03:46:00,38.0,26.8,29.97,NE,45,3.4,3.4,64,0.00,,,0.00,WUHU216HW,2013-11-24 11:46:00,
2013-11-24 03:47:00,38.0,26.8,29.97,NE,45,3.1,3.4,64,0.00,,,0.00,WUHU216HW,2013-11-24 11:47:00,
2013-11-24 03:48:00,38.0,26.8,29.97,NE,45,3.0,3.4,64,0.00,,,0.00,WUHU216HW,2013-11-24 11:48:00,
2013-11-24 03:49:00,38.0,26.5,29.97,NE,50,2.4,3.4,63,0.00,,,0.00,WUHU216HW,2013-11-24 11:49:00,
2013-11-24 03:50:00,38.0,26.5,29.97,NE,45,2.0,3.4,63,0.00,,,0.00,WUHU216HW,2013-11-24 11:50:00,
2013-11-24 03:51:00,38.0,26.5,29.97,NE,45,1.8,3.4,63,0.00,,,0.00,WUHU216HW,2013-11-24 11:51:00,
2013-11-24 03:52:00,38.0,27.2,29.97,NE,45,4.0,4.0,65,0.00,,,0.00,WUHU216HW,2013-11-24 11:52:00,
2013-11-24 03:53:00,37.8,26.6,29.97,NE,42,2.9,4.0,64,0.00,,,0.00,WUHU216HW,2013-11-24 11:53:00,
2013-11-24 03:54:00,37.8,26.6,29.97,NNE,23,3.4,4.0,64,0.00,,,0.00,WUHU216HW,2013-11-24 11:54:00,
2013-11-24 03:55:00,37.8,26.3,29.97,North,0,3.1,4.0,63,0.00,,,0.00,WUHU216HW,2013-11-24 11:55:00,
2013-11-24 03:56:00,37.8,26.3,29.97,NNE,23,3.8,4.0,63,0.00,,,0.00,WUHU216HW,2013-11-24 11:56:00,
2013-11-24 03:57:00,37.8,26.3,29.97,NNE,20,3.4,4.0,63,0.00,,,0.00,WUHU216HW,2013-11-24 11:57:00,
2013-11-24 03:58:00,37.8,26.3,29.97,NNE,23,3.4,4.0,63,0.00,,,0.00,WUHU216HW,2013-11-24 11:58:00,
2013-11-24 03:59:00,37.8,26.3,29.97,NNE,23,4.3,4.3,63,0.00,,,0.00,WUHU216HW,2013-11-24 11:59:00,
2013-11-24 04:00:00,37.8,26.6,29.97,NNE,23,4.7,4.7,64,0.00,,,0.00,WUHU216HW,2013-11-24 12:00:00,
2013-11-24 04:01:00,37.8,26.6,29.97,NNE,23,4.1,4.7,64,0.00,,,0.00,WUHU216HW,2013-11-24 12:01:00,
2013-11-24 04:02:00,37.8,27.1,29.97,NNE,30,3.3,4.7,65,0.00,,,0.00,WUHU216HW,2013-11-24 12:02:00,
2013-11-24 04:03:00,37.8,27.1,29.97,NE,45,2.9,4.7,65,0.00,,,0.00,WUHU216HW,2013-11-24 12:03:00,
2013-11-24 04:04:00,37.8,28.2,29.97,NE,45,4.9,4.9,68,0.00,,,0.00,WUHU216HW,2013-11-24 12:04:00,
2013-11-24 04:05:00,37.8,28.5,29.98,NE,39,4.1,4.9,69,0.00,,,0.00,WUHU216HW,2013-11-24 12:05:00,
2013-11-24 04:06:00,37.8,28.2,29.97,NNE,23,4.7,4.9,68,0.00,,,0.00,WUHU216HW,2013-11-24 12:06:00,
2013-11-24 04:07:00,37.8,28.2,29.98,NNE,23,4.4,4.9,68,0.00,,,0.00,WUHU216HW,2013-11-24 12:07:00,
2013-11-24 04:08:00,37.8,28.2,29.97,NNE,33,4.0,4.9,68,0.00,,,0.00,WUHU216HW,2013-11-24 12:08:00,
2013-11-24 04:09:00,37.8,28.5,29.97,NE,43,3.6,4.9,69,0.00,,,0.00,WUHU216HW,2013-11-24 12:09:00,
2013-11-24 04:10:00,37.8,28.5,29.98,NE,45,3.4,4.9,69,0.00,,,0.00,WUHU216HW,2013-11-24 12:10:00,
2013-11-24 04:11:00,37.8,28.5,29.97,ENE,68,2.9,4.9,69,0.00,,,0.00,WUHU216HW,2013-11-24 12:11:00,
2013-11-24 04:12:00,37.8,28.5,29.98,NE,51,2.6,4.9,69,0.00,,,0.00,WUHU216HW,2013-11-24 12:12:00,
2013-11-24 04:13:00,37.8,28.5,29.98,NNE,23,2.7,4.9,69,0.00,,,0.00,WUHU216HW,2013-11-24 12:13:00,
2013-11-24 04:14:00,37.8,28.2,29.98,NNE,23,3.8,4.9,68,0.00,,,0.00,WUHU216HW,2013-11-24 12:14:00,
2013-11-24 04:15:00,37.8,28.2,29.98,NNE,23,3.4,4.9,68,0.00,,,0.00,WUHU216HW,2013-11-24 12:15:00,
2013-11-24 04:16:00,37.8,28.2,29.98,NE,45,4.0,4.9,68,0.00,,,0.00,WUHU216HW,2013-11-24 12:16:00,
2013-11-24 04:17:00,37.8,28.2,29.98,NNE,23,4.9,4.9,68,0.00,,,0.00,WUHU216HW,2013-11-24 12:17:00,
2013-11-24 04:18:00,38.0,28.4,29.98,NE,45,5.1,5.6,68,0.00,,,0.00,WUHU216HW,2013-11-24 12:18:00,
2013-11-24 04:19:00,38.0,28.4,29.98,NE,35,5.3,5.6,68,0.00,,,0.00,WUHU216HW,2013-11-24 12:19:00,
2013-11-24 04:20:00,38.0,28.7,29.98,NNE,33,5.2,5.6,69,0.00,,,0.00,WUHU216HW,2013-11-24 12:20:00,
2013-11-24 04:21:00,38.0,28.7,29.98,NE,37,5.0,5.6,69,0.00,,,0.00,WUHU216HW,2013-11-24 12:21:00,
2013-11-24 04:22:00,38.0,29.1,29.98,NNE,23,4.7,5.6,70,0.00,,,0.00,WUHU216HW,2013-11-24 12:22:00,
2013-11-24 04:23:00,38.0,29.1,29.98,NE,45,4.5,5.6,70,0.00,,,0.00,WUHU216HW,2013-11-24 12:23:00,
2013-11-24 04:24:00,38.2,29.3,29.98,NE,41,4.4,5.6,70,0.00,,,0.00,WUHU216HW,2013-11-24 12:24:00,
2013-11-24 04:25:00,38.2,29.6,29.98,NE,45,4.1,5.6,71,0.00,,,0.00,WUHU216HW,2013-11-24 12:25:00,
2013-11-24 04:26:00,38.2,29.6,29.98,NE,42,4.2,5.6,71,0.00,,,0.00,WUHU216HW,2013-11-24 12:26:00,
2013-11-24 04:27:00,38.2,29.6,29.98,NE,35,4.1,5.6,71,0.00,,,0.00,WUHU216HW,2013-11-24 12:27:00,
2013-11-24 04:28:00,38.2,29.6,29.98,NE,44,3.7,5.4,71,0.00,,,0.00,WUHU216HW,2013-11-24 12:28:00,
2013-11-24 04:29:00,38.2,29.6,29.98,NE,45,3.8,5.4,71,0.00,,,0.00,WUHU216HW,2013-11-24 12:29:00,
2013-11-24 04:30:00,38.3,29.8,29.98,NE,45,4.0,5.4,71,0.00,,,0.00,WUHU216HW,2013-11-24 12:30:00,
2013-11-24 04:31:00,38.3,29.8,29.98,NE,45,3.8,4.7,71,0.00,,,0.00,WUHU216HW,2013-11-24 12:31:00,
2013-11-24 04:32:00,38.3,29.8,29.98,NE,45,4.7,4.7,71,0.00,,,0.00,WUHU216HW,2013-11-24 12:32:00,
2013-11-24 04:33:00,38.3,29.8,29.98,NE,47,4.0,4.7,71,0.00,,,0.00,WUHU216HW,2013-11-24 12:33:00,
2013-11-24 04:34:00,38.3,29.8,29.98,ENE,68,4.0,4.7,71,0.00,,,0.00,WUHU216HW,2013-11-24 12:34:00,
2013-11-24 04:35:00,38.3,29.8,29.98,NE,45,4.7,4.7,71,0.00,,,0.00,WUHU216HW,2013-11-24 12:35:00,
2013-11-24 04:36:00,38.3,29.4,29.98,NE,45,5.1,6.0,70,0.00,,,0.00,WUHU216HW,2013-11-24 12:36:00,
2013-11-24 04:37:00,38.3,29.1,29.98,NE,45,5.1,6.0,69,0.00,,,0.00,WUHU216HW,2013-11-24 12:37:00,
2013-11-24 04:38:00,38.3,29.1,29.98,NE,45,4.7,6.0,69,0.00,,,0.00,WUHU216HW,2013-11-24 12:38:00,
2013-11-24 04:39:00,38.5,29.3,29.98,NNE,30,5.2,6.0,69,0.00,,,0.00,WUHU216HW,2013-11-24 12:39:00,
2013-11-24 04:40:00,38.5,28.8,29.98,NE,45,5.1,6.0,68,0.00,,,0.00,WUHU216HW,2013-11-24 12:40:00,
2013-11-24 04:41:00,38.5,29.3,29.98,NE,45,4.7,6.0,69,0.00,,,0.00,WUHU216HW,2013-11-24 12:41:00,
2013-11-24 04:42:00,38.5,29.3,29.98,NE,37,4.8,6.0,69,0.00,,,0.00,WUHU216HW,2013-11-24 12:42:00,
2013-11-24 04:43:00,38.5,29.3,29.98,ENE,68,5.4,6.0,69,0.00,,,0.00,WUHU216HW,2013-11-24 12:43:00,
2013-11-24 04:44:00,38.5,29.3,29.98,NE,47,4.9,6.0,69,0.00,,,0.00,WUHU216HW,2013-11-24 12:44:00,
2013-11-24 04:45:00,38.5,28.8,29.98,NNE,33,4.3,6.0,68,0.00,,,0.00,WUHU216HW,2013-11-24 12:45:00,
2013-11-24 04:46:00,38.5,28.8,29.98,NE,38,3.9,5.8,68,0.00,,,0.00,WUHU216HW,2013-11-24 12:46:00,
2013-11-24 04:47:00,38.5,28.8,29.98,NE,48,3.5,5.8,68,0.00,,,0.00,WUHU216HW,2013-11-24 12:47:00,
2013-11-24 04:48:00,38.5,28.4,29.98,ENE,58,3.4,5.8,67,0.00,,,0.00,WUHU216HW,2013-11-24 12:48:00,
2013-11-24 04:49:00,38.5,28.4,29.98,ENE,70,3.0,5.6,67,0.00,,,0.00,WUHU216HW,2013-11-24 12:49:00,
2013-11-24 04:50:00,38.5,28.4,29.98,East,96,1.9,5.6,67,0.00,,,0.00,WUHU216HW,2013-11-24 12:50:00,
2013-11-24 04:51:00,38.3,28.3,29.98,ESE,113,2.2,5.6,67,0.00,,,0.00,WUHU216HW,2013-11-24 12:51:00,
2013-11-24 04:52:00,38.2,28.2,29.98,ESE,108,1.7,5.6,67,0.00,,,0.00,WUHU216HW,2013-11-24 12:52:00,
2013-11-24 04:53:00,38.2,28.2,29.98,East,90,2.9,5.6,67,0.00,,,0.00,WUHU216HW,2013-11-24 12:53:00,
2013-11-24 04:54:00,38.0,28.0,29.98,ESE,110,2.3,5.6,67,0.00,,,0.00,WUHU216HW,2013-11-24 12:54:00,
2013-11-24 04:55:00,37.8,27.8,29.98,East,90,2.5,4.3,67,0.00,,,0.00,WUHU216HW,2013-11-24 12:55:00,
2013-11-24 04:56:00,37.8,27.8,29.98,ESE,103,2.0,4.3,67,0.00,,,0.00,WUHU216HW,2013-11-24 12:56:00,
2013-11-24 04:57:00,37.6,27.6,29.98,SE,135,2.2,4.3,67,0.00,,,0.00,WUHU216HW,2013-11-24 12:57:00,
2013-11-24 04:58:00,37.6,27.6,29.98,ESE,113,1.8,4.3,67,0.00,,,0.00,WUHU216HW,2013-11-24 12:58:00,
2013-11-24 04:59:00,37.4,27.5,29.98,SE,135,1.8,2.9,67,0.00,,,0.00,WUHU216HW,2013-11-24 12:59:00,
2013-11-24 05:00:00,37.4,27.5,29.98,East,90,2.2,2.9,67,0.00,,,0.00,WUHU216HW,2013-11-24 13:00:00,
2013-11-24 05:01:00,37.3,27.3,29.98,ENE,68,2.5,3.1,67,0.00,,,0.00,WUHU216HW,2013-11-24 13:01:00,
2013-11-24 05:02:00,37.3,27.3,29.98,ENE,68,3.1,3.1,67,0.00,,,0.00,WUHU216HW,2013-11-24 13:02:00,
2013-11-24 05:03:00,37.3,27.3,29.98,ENE,77,2.4,3.1,67,0.00,,,0.00,WUHU216HW,2013-11-24 13:03:00,
2013-11-24 05:04:00,37.3,27.3,29.98,ENE,68,3.1,3.1,67,0.00,,,0.00,WUHU216HW,2013-11-24 13:04:00,
2013-11-24 05:05:00,37.3,27.3,29.98,ENE,68,3.4,3.6,67,0.00,,,0.00,WUHU216HW,2013-11-24 13:05:00,
2013-11-24 05:06:00,37.3,27.3,29.98,ENE,62,3.5,4.0,67,0.00,,,0.00,WUHU216HW,2013-11-24 13:06:00,
2013-11-24 05:07:00,37.3,27.3,29.98,ENE,58,3.5,4.0,67,0.00,,,0.00,WUHU216HW,2013-11-24 13:07:00,
2013-11-24 05:08:00,37.4,27.5,29.98,NE,54,3.1,4.0,67,0.00,,,0.00,WUHU216HW,2013-11-24 13:08:00,
2013-11-24 05:09:00,37.4,27.5,29.98,ENE,59,2.6,4.0,67,0.00,,,0.00,WUHU216HW,2013-11-24 13:09:00,
2013-11-24 05:10:00,37.4,27.5,29.98,ENE,68,2.2,4.0,67,0.00,,,0.00,WUHU216HW,2013-11-24 13:10:00,
2013-11-24 05:11:00,37.4,27.5,29.98,East,90,2.5,4.0,67,0.00,,,0.00,WUHU216HW,2013-11-24 13:11:00,
2013-11-24 05:12:00,37.4,27.5,29.98,East,90,2.5,4.0,67,0.00,,,0.00,WUHU216HW,2013-11-24 13:12:00,
2013-11-24 05:13:00,37.4,27.1,29.98,East,90,2.5,4.0,66,0.00,,,0.00,WUHU216HW,2013-11-24 13:13:00,
2013-11-24 05:14:00,37.4,27.1,29.98,East,92,2.1,4.0,66,0.00,,,0.00,WUHU216HW,2013-11-24 13:14:00,
2013-11-24 05:15:00,37.6,27.3,29.98,ESE,102,1.5,4.0,66,0.00,,,0.00,WUHU216HW,2013-11-24 13:15:00,
2013-11-24 05:16:00,37.4,27.1,29.98,ESE,113,1.1,3.4,66,0.00,,,0.00,WUHU216HW,2013-11-24 13:16:00,
2013-11-24 05:17:00,37.4,27.1,29.98,East,90,1.8,3.1,66,0.00,,,0.00,WUHU216HW,2013-11-24 13:17:00,
2013-11-24 05:18:00,37.4,27.1,29.98,East,90,2.2,2.9,66,0.00,,,0.00,WUHU216HW,2013-11-24 13:18:00,
2013-11-24 05:19:00,37.4,27.1,29.98,ESE,113,1.6,2.5,66,0.00,,,0.00,WUHU216HW,2013-11-24 13:19:00,
2013-11-24 05:20:00,37.4,27.1,29.98,SE,135,1.6,2.5,66,0.00,,,0.00,WUHU216HW,2013-11-24 13:20:00,
2013-11-24 05:21:00,37.3,26.9,29.98,SE,125,1.6,2.5,66,0.00,,,0.00,WUHU216HW,2013-11-24 13:21:00,
2013-11-24 05:22:00,37.1,26.7,29.98,SE,135,1.3,2.5,66,0.00,,,0.00,WUHU216HW,2013-11-24 13:22:00,
2013-11-24 05:23:00,37.1,26.7,29.98,SE,135,1.1,2.2,66,0.00,,,0.00,WUHU216HW,2013-11-24 13:23:00,
2013-11-24 05:24:00,37.1,26.7,29.98,SE,135,1.6,2.2,66,0.00,,,0.00,WUHU216HW,2013-11-24 13:24:00,
2013-11-24 05:25:00,37.1,26.7,29.98,SE,135,1.6,2.2,66,0.00,,,0.00,WUHU216HW,2013-11-24 13:25:00,
2013-11-24 05:26:00,36.9,26.6,29.98,SE,135,1.3,2.2,66,0.00,,,0.00,WUHU216HW,2013-11-24 13:26:00,
2013-11-24 05:27:00,36.9,26.6,29.98,SE,135,0.6,2.2,66,0.00,,,0.00,WUHU216HW,2013-11-24 13:27:00,
2013-11-24 05:28:00,36.7,26.5,29.98,SE,135,0.3,2.2,66,0.00,,,0.00,WUHU216HW,2013-11-24 13:28:00,
2013-11-24 05:29:00,36.7,26.5,29.98,ENE,68,1.1,1.8,66,0.00,,,0.00,WUHU216HW,2013-11-24 13:29:00,
2013-11-24 05:30:00,36.5,26.3,29.98,ENE,68,1.8,1.8,66,0.00,,,0.00,WUHU216HW,2013-11-24 13:30:00,
2013-11-24 05:31:00,36.5,26.3,29.98,ENE,68,1.5,1.8,66,0.00,,,0.00,WUHU216HW,2013-11-24 13:31:00,
2013-11-24 05:32:00,36.5,26.3,29.98,ENE,68,1.2,1.8,66,0.00,,,0.00,WUHU216HW,2013-11-24 13:32:00,
2013-11-24 05:33:00,36.4,26.1,29.98,ENE,68,1.6,1.8,66,0.00,,,0.00,WUHU216HW,2013-11-24 13:33:00,
2013-11-24 05:34:00,36.4,26.1,29.98,ENE,68,1.8,1.8,66,0.00,,,0.00,WUHU216HW,2013-11-24 13:34:00,
2013-11-24 05:35:00,36.4,26.5,29.98,NE,45,1.8,1.8,67,0.00,,,0.00,WUHU216HW,2013-11-24 13:35:00,
2013-11-24 05:36:00,36.4,26.5,29.98,NE,45,1.8,2.0,67,0.00,,,0.00,WUHU216HW,2013-11-24 13:36:00,
2013-11-24 05:37:00,36.4,26.5,29.98,NE,45,1.9,2.2,67,0.00,,,0.00,WUHU216HW,2013-11-24 13:37:00,
2013-11-24 05:38:00,36.4,26.5,29.98,NE,45,1.8,2.2,67,0.00,,,0.00,WUHU216HW,2013-11-24 13:38:00,
2013-11-24 05:39:00,36.4,26.5,29.98,ENE,68,2.0,2.2,67,0.00,,,0.00,WUHU216HW,2013-11-24 13:39:00,
2013-11-24 05:40:00,36.4,26.5,29.98,ENE,68,2.5,2.5,67,0.00,,,0.00,WUHU216HW,2013-11-24 13:40:00,
2013-11-24 05:41:00,36.4,26.5,29.98,NE,45,2.5,2.5,67,0.00,,,0.00,WUHU216HW,2013-11-24 13:41:00,
2013-11-24 05:42:00,36.4,26.5,29.98,NE,45,2.1,2.5,67,0.00,,,0.00,WUHU216HW,2013-11-24 13:42:00,
2013-11-24 05:43:00,36.4,26.5,29.98,NE,45,2.0,2.5,67,0.00,,,0.00,WUHU216HW,2013-11-24 13:43:00,
2013-11-24 05:44:00,36.5,26.7,29.98,NE,45,1.8,2.5,67,0.00,,,0.00,WUHU216HW,2013-11-24 13:44:00,
2013-11-24 05:45:00,36.7,26.8,29.98,NE,36,1.5,2.5,67,0.00,,,0.00,WUHU216HW,2013-11-24 13:45:00,
2013-11-24 05:46:00,36.7,27.2,29.98,ENE,68,2.0,2.5,68,0.00,,,0.00,WUHU216HW,2013-11-24 13:46:00,
2013-11-24 05:47:00,36.9,27.4,29.98,ENE,68,2.0,2.5,68,0.00,,,0.00,WUHU216HW,2013-11-24 13:47:00,
2013-11-24 05:48:00,36.9,27.4,29.98,NE,45,2.9,2.9,68,0.00,,,0.00,WUHU216HW,2013-11-24 13:48:00,
2013-11-24 05:49:00,36.9,27.7,29.98,NE,45,2.5,3.4,69,0.00,,,0.00,WUHU216HW,2013-11-24 13:49:00,
2013-11-24 05:50:00,36.9,28.1,29.98,NE,45,2.6,3.4,70,0.00,,,0.00,WUHU216HW,2013-11-24 13:50:00,
2013-11-24 05:51:00,36.9,27.7,29.98,NE,47,2.3,3.4,69,0.00,,,0.00,WUHU216HW,2013-11-24 13:51:00,
2013-11-24 05:52:00,36.7,27.6,29.99,NE,45,2.7,3.4,69,0.00,,,0.00,WUHU216HW,2013-11-24 13:52:00,
2013-11-24 05:53:00,36.7,27.9,29.99,NE,45,2.5,3.4,70,0.00,,,0.00,WUHU216HW,2013-11-24 13:53:00,
2013-11-24 05:54:00,36.7,27.6,29.98,NE,45,2.4,3.4,69,0.00,,,0.00,WUHU216HW,2013-11-24 13:54:00,
2013-11-24 05:55:00,36.5,27.4,29.99,NE,45,2.0,3.4,69,0.00,,,0.00,WUHU216HW,2013-11-24 13:55:00,
2013-11-24 05:56:00,36.5,27.4,29.99,NE,45,2.0,3.4,69,0.00,,,0.00,WUHU216HW,2013-11-24 13:56:00,
2013-11-24 05:57:00,36.5,27.7,29.98,NE,45,2.5,3.4,70,0.00,,,0.00,WUHU216HW,2013-11-24 13:57:00,
2013-11-24 05:58:00,36.4,27.5,29.99,NE,45,2.2,3.4,70,0.00,,,0.00,WUHU216HW,2013-11-24 13:58:00,
2013-11-24 05:59:00,36.4,27.2,29.99,NE,47,2.1,2.7,69,0.00,,,0.00,WUHU216HW,2013-11-24 13:59:00,
2013-11-24 06:00:00,36.4,27.5,29.99,NE,45,2.5,2.7,70,0.00,,,0.00,WUHU216HW,2013-11-24 14:00:00,
2013-11-24 06:01:00,36.4,27.2,29.99,NE,45,2.5,2.7,69,0.00,,,0.00,WUHU216HW,2013-11-24 14:01:00,
2013-11-24 06:02:00,36.2,27.0,29.99,East,90,2.5,2.7,69,0.00,,,0.00,WUHU216HW,2013-11-24 14:02:00,
2013-11-24 06:03:00,36.0,26.8,29.99,ENE,74,2.6,3.1,69,0.00,,,0.00,WUHU216HW,2013-11-24 14:03:00,
2013-11-24 06:04:00,36.0,26.8,29.99,East,80,2.5,3.1,69,0.00,,,0.00,WUHU216HW,2013-11-24 14:04:00,
2013-11-24 06:05:00,36.0,26.8,29.99,East,86,2.1,3.1,69,0.00,,,0.00,WUHU216HW,2013-11-24 14:05:00,
2013-11-24 06:06:00,35.8,27.0,29.99,ENE,68,2.5,3.1,70,0.00,,,0.00,WUHU216HW,2013-11-24 14:06:00,
2013-11-24 06:07:00,35.8,27.0,29.99,ENE,68,3.1,3.1,70,0.00,,,0.00,WUHU216HW,2013-11-24 14:07:00,
2013-11-24 06:08:00,35.6,27.2,29.99,ENE,68,2.9,3.1,71,0.00,,,0.00,WUHU216HW,2013-11-24 14:08:00,
2013-11-24 06:09:00,35.6,27.2,29.99,ENE,68,2.9,3.1,71,0.00,,,0.00,WUHU216HW,2013-11-24 14:09:00,
2013-11-24 06:10:00,35.5,27.0,29.99,ENE,68,2.7,3.1,71,0.00,,,0.00,WUHU216HW,2013-11-24 14:10:00,
2013-11-24 06:11:00,35.5,27.0,29.99,ENE,68,3.1,3.1,71,0.00,,,0.00,WUHU216HW,2013-11-24 14:11:00,
2013-11-24 06:12:00,35.5,27.0,29.99,ENE,68,2.9,3.1,71,0.00,,,0.00,WUHU216HW,2013-11-24 14:12:00,
2013-11-24 06:13:00,35.5,27.0,29.99,ENE,63,2.8,3.1,71,0.00,,,0.00,WUHU216HW,2013-11-24 14:13:00,
2013-11-24 06:14:00,35.3,26.8,29.99,NE,45,2.7,3.1,71,0.00,,,0.00,WUHU216HW,2013-11-24 14:14:00,
2013-11-24 06:15:00,35.3,26.8,29.99,NNE,23,3.1,3.1,71,0.00,,,0.00,WUHU216HW,2013-11-24 14:15:00,
2013-11-24 06:16:00,35.3,26.8,29.99,NE,45,3.8,3.8,71,0.00,,,0.00,WUHU216HW,2013-11-24 14:16:00,
2013-11-24 06:17:00,35.3,27.1,29.99,NE,39,3.4,3.8,72,0.00,,,0.00,WUHU216HW,2013-11-24 14:17:00,
2013-11-24 06:18:00,35.5,27.0,29.99,NE,39,2.6,3.8,71,0.00,,,0.00,WUHU216HW,2013-11-24 14:18:00,
2013-11-24 06:19:00,35.5,27.0,29.99,NE,45,2.9,3.8,71,0.00,,,0.00,WUHU216HW,2013-11-24 14:19:00,
2013-11-24 06:20:00,35.5,27.0,29.99,NE,45,2.7,3.8,71,0.00,,,0.00,WUHU216HW,2013-11-24 14:20:00,
2013-11-24 06:21:00,35.6,27.5,29.99,NE,45,4.0,4.0,72,0.00,,,0.00,WUHU216HW,2013-11-24 14:21:00,
2013-11-24 06:22:00,35.6,27.5,29.99,NE,43,3.7,4.0,72,0.00,,,0.00,WUHU216HW,2013-11-24 14:22:00,
2013-11-24 06:23:00,35.6,27.5,30.00,NE,44,2.7,4.0,72,0.00,,,0.00,WUHU216HW,2013-11-24 14:23:00,
2013-11-24 06:24:00,35.8,28.0,29.99,NE,45,4.3,4.5,73,0.00,,,0.00,WUHU216HW,2013-11-24 14:24:00,
2013-11-24 06:25:00,35.8,28.0,29.99,NE,45,3.8,4.5,73,0.00,,,0.00,WUHU216HW,2013-11-24 14:25:00,
2013-11-24 06:26:00,35.8,28.0,29.99,NNE,23,4.0,4.5,73,0.00,,,0.00,WUHU216HW,2013-11-24 14:26:00,
2013-11-24 06:27:00,35.8,27.6,29.99,NE,37,3.6,4.5,72,0.00,,,0.00,WUHU216HW,2013-11-24 14:27:00,
2013-11-24 06:28:00,35.8,28.0,29.99,NE,45,5.6,5.6,73,0.00,,,0.00,WUHU216HW,2013-11-24 14:28:00,
2013-11-24 06:29:00,36.0,28.2,29.99,NE,39,4.4,5.6,73,0.00,,,0.00,WUHU216HW,2013-11-24 14:29:00,
2013-11-24 06:30:00,36.0,28.2,29.99,NE,52,3.1,5.6,73,0.00,,,0.00,WUHU216HW,2013-11-24 14:30:00,
2013-11-24 06:31:00,36.2,28.4,29.99,ENE,68,3.4,5.6,73,0.00,,,0.00,WUHU216HW,2013-11-24 14:31:00,
2013-11-24 06:32:00,36.2,28.4,29.99,NE,45,6.0,6.0,73,0.00,,,0.00,WUHU216HW,2013-11-24 14:32:00,
2013-11-24 06:33:00,36.4,28.5,29.99,NE,39,5.2,6.3,73,0.00,,,0.00,WUHU216HW,2013-11-24 14:33:00,
2013-11-24 06:34:00,36.4,28.5,29.99,NE,35,3.3,6.3,73,0.00,,,0.00,WUHU216HW,2013-11-24 14:34:00,
2013-11-24 06:35:00,36.4,28.5,29.99,NE,45,4.0,6.3,73,0.00,,,0.00,WUHU216HW,2013-11-24 14:35:00,
2013-11-24 06:36:00,36.5,28.7,29.99,ENE,68,4.0,6.3,73,0.00,,,0.00,WUHU216HW,2013-11-24 14:36:00,
2013-11-24 06:37:00,36.7,28.5,29.99,NE,40,3.3,6.3,72,0.00,,,0.00,WUHU216HW,2013-11-24 14:37:00,
2013-11-24 06:38:00,36.9,28.7,29.99,NNE,23,4.7,6.3,72,0.00,,,0.00,WUHU216HW,2013-11-24 14:38:00,
2013-11-24 06:39:00,37.1,28.6,29.99,NNE,23,3.8,6.3,71,0.00,,,0.00,WUHU216HW,2013-11-24 14:39:00,
2013-11-24 06:40:00,37.3,28.8,29.99,NNE,23,4.3,6.3,71,0.00,,,0.00,WUHU216HW,2013-11-24 14:40:00,
2013-11-24 06:41:00,37.3,28.8,29.99,NNE,16,3.5,6.3,71,0.00,,,0.00,WUHU216HW,2013-11-24 14:41:00,
2013-11-24 06:46:00,37.8,29.3,29.99,NE,41,5.0,6.3,71,0.00,,,0.00,WUHU216HW,2013-11-24 14:46:00,
2013-11-24 06:47:00,37.8,29.3,29.99,NE,36,4.8,6.3,71,0.00,,,0.00,WUHU216HW,2013-11-24 14:47:00,
2013-11-24 06:52:00,37.6,29.1,29.99,SSE,158,1.8,6.3,71,0.00,,,0.00,WUHU216HW,2013-11-24 14:52:00,
2013-11-24 06:57:00,37.1,28.3,29.99,SSE,158,3.8,4.7,70,0.00,,,0.00,WUHU216HW,2013-11-24 14:57:00,
2013-11-24 07:02:00,36.4,27.5,30.00,East,90,3.4,3.8,70,0.00,,,0.00,WUHU216HW,2013-11-24 15:02:00,
2013-11-24 07:07:00,36.0,27.2,29.99,ENE,68,3.4,3.8,70,0.00,,,0.00,WUHU216HW,2013-11-24 15:07:00,
2013-11-24 07:12:00,35.8,27.0,29.99,ESE,111,1.8,3.4,70,0.00,,,0.00,WUHU216HW,2013-11-24 15:12:00,
2013-11-24 07:16:00,35.8,27.0,29.99,NE,53,1.9,3.4,70,0.00,,,0.00,WUHU216HW,2013-11-24 15:16:00,
2013-11-24 07:21:00,35.8,27.0,30.00,NE,45,2.9,3.1,70,0.00,,,0.00,WUHU216HW,2013-11-24 15:21:00,
2013-11-24 07:26:00,35.8,27.4,30.00,NE,45,2.2,3.1,71,0.00,,,0.00,WUHU216HW,2013-11-24 15:26:00,
2013-11-24 07:32:00,35.6,27.5,30.00,NE,45,2.8,3.4,72,0.00,,,0.00,WUHU216HW,2013-11-24 15:32:00,
2013-11-24 07:37:00,35.6,27.2,30.00,East,90,2.2,3.4,71,0.00,,,0.00,WUHU216HW,2013-11-24 15:37:00,
2013-11-24 07:42:00,35.3,26.8,30.01,ESE,113,2.0,2.7,71,0.00,,,0.00,WUHU216HW,2013-11-24 15:42:00,
2013-11-24 07:47:00,35.1,26.7,30.01,East,91,1.7,2.2,71,0.00,,,0.00,WUHU216HW,2013-11-24 15:47:00,
2013-11-24 07:52:00,34.9,26.5,30.01,East,87,1.6,2.7,71,0.00,,,0.00,WUHU216HW,2013-11-24 15:52:00,
2013-11-24 07:57:00,34.7,26.3,30.01,ESE,113,1.6,2.7,71,0.00,,,0.00,WUHU216HW,2013-11-24 15:57:00,
2013-11-24 08:02:00,34.7,26.6,30.01,ENE,68,2.2,2.5,72,0.00,,,0.00,WUHU216HW,2013-11-24 16:02:00,
2013-11-24 08:07:00,34.9,27.1,30.02,East,99,2.2,3.1,73,0.00,,,0.00,WUHU216HW,2013-11-24 16:07:00,
2013-11-24 08:12:00,34.9,27.1,30.02,ESE,112,1.6,3.1,73,0.00,,,0.00,WUHU216HW,2013-11-24 16:12:00,
2013-11-24 08:17:00,34.9,27.1,30.03,ENE,68,2.5,3.6,73,0.00,,,0.00,WUHU216HW,2013-11-24 16:17:00,
2013-11-24 08:22:00,35.3,27.5,30.03,ENE,68,2.7,3.6,73,0.00,,,0.00,WUHU216HW,2013-11-24 16:22:00,
2013-11-24 08:27:00,35.5,27.9,30.03,East,94,2.6,3.4,74,0.00,,,0.00,WUHU216HW,2013-11-24 16:27:00,
2013-11-24 08:32:00,35.8,28.0,30.03,ESE,110,1.8,3.4,73,0.00,,,0.00,WUHU216HW,2013-11-24 16:32:00,
2013-11-24 08:37:00,36.2,28.4,30.03,SE,135,2.5,2.7,73,0.00,,,0.00,WUHU216HW,2013-11-24 16:37:00,
2013-11-24 08:42:00,36.4,28.5,30.04,SE,135,1.1,2.5,73,0.00,,,0.00,WUHU216HW,2013-11-24 16:42:00,
2013-11-24 08:47:00,37.1,29.5,30.04,ESE,119,1.0,2.5,74,0.00,,,0.00,WUHU216HW,2013-11-24 16:47:00,
2013-11-24 08:52:00,37.8,30.2,30.04,East,90,1.2,2.5,74,0.00,,,0.00,WUHU216HW,2013-11-24 16:52:00,
2013-11-24 08:57:00,38.3,30.4,30.04,NE,45,1.7,2.5,73,0.00,,,0.00,WUHU216HW,2013-11-24 16:57:00,
2013-11-24 09:02:00,38.5,30.2,30.04,NE,45,2.2,2.5,72,0.00,,,0.00,WUHU216HW,2013-11-24 17:02:00,
2013-11-24 09:07:00,38.9,31.0,30.05,ENE,57,2.2,3.4,73,0.00,,,0.00,WUHU216HW,2013-11-24 17:07:00,
2013-11-24 09:12:00,39.2,31.0,30.05,ENE,74,0.6,3.4,72,0.00,,,0.00,WUHU216HW,2013-11-24 17:12:00,
2013-11-24 09:17:00,39.6,31.3,30.05,East,90,1.2,2.5,72,0.00,,,0.00,WUHU216HW,2013-11-24 17:17:00,
2013-11-24 09:22:00,40.1,31.5,30.05,East,90,0.4,2.0,71,0.00,,,0.00,WUHU216HW,2013-11-24 17:22:00,
2013-11-24 09:27:00,40.7,32.1,30.05,NE,45,2.7,2.7,71,0.00,,,0.00,WUHU216HW,2013-11-24 17:27:00,
2013-11-24 09:32:00,41.2,32.6,30.05,NE,45,2.9,3.4,71,0.00,,,0.00,WUHU216HW,2013-11-24 17:32:00,
2013-11-24 09:37:00,41.4,32.8,30.05,NE,48,1.7,3.8,71,0.00,,,0.00,WUHU216HW,2013-11-24 17:37:00,
2013-11-24 09:42:00,41.9,33.3,30.06,ENE,64,0.9,3.8,71,0.00,,,0.00,WUHU216HW,2013-11-24 17:42:00,
2013-11-24 09:47:00,42.5,33.5,30.06,ENE,70,1.6,2.7,70,0.00,,,0.00,WUHU216HW,2013-11-24 17:47:00,
2013-11-24 09:52:00,43.2,33.8,30.06,NE,43,1.7,2.7,69,0.00,,,0.00,WUHU216HW,2013-11-24 17:52:00,
2013-11-24 09:57:00,43.6,33.8,30.06,NNE,23,3.4,3.4,68,0.00,,,0.00,WUHU216HW,2013-11-24 17:57:00,
2013-11-24 10:02:00,44.1,34.2,30.06,NE,43,2.5,3.6,68,0.00,,,0.00,WUHU216HW,2013-11-24 18:02:00,
2013-11-24 10:07:00,44.5,34.6,30.06,NE,45,2.0,3.6,68,0.00,,,0.00,WUHU216HW,2013-11-24 18:07:00,
2013-11-24 10:12:00,44.8,34.1,30.06,NE,35,2.0,2.5,66,0.00,,,0.00,WUHU216HW,2013-11-24 18:12:00,
2013-11-24 10:17:00,45.4,34.3,30.06,NE,45,1.0,2.5,65,0.00,,,0.00,WUHU216HW,2013-11-24 18:17:00,
2013-11-24 10:22:00,45.7,34.6,30.06,SE,135,0.4,1.8,65,0.00,,,0.00,WUHU216HW,2013-11-24 18:22:00,
2013-11-24 10:27:00,46.3,34.8,30.06,NNE,23,1.1,1.3,64,0.00,,,0.00,WUHU216HW,2013-11-24 18:27:00,
2013-11-24 10:32:00,46.8,34.8,30.07,NE,45,1.1,1.8,63,0.00,,,0.00,WUHU216HW,2013-11-24 18:32:00,
2013-11-24 10:37:00,47.3,35.0,30.06,SE,135,1.1,1.8,62,0.00,,,0.00,WUHU216HW,2013-11-24 18:37:00,
2013-11-24 10:42:00,47.5,34.7,30.07,ESE,113,1.3,2.2,61,0.00,,,0.00,WUHU216HW,2013-11-24 18:42:00,
2013-11-24 10:47:00,47.9,35.1,30.07,SE,135,1.6,2.2,61,0.00,,,0.00,WUHU216HW,2013-11-24 18:47:00,
2013-11-24 10:52:00,48.4,35.6,30.06,SE,135,1.5,2.2,61,0.00,,,0.00,WUHU216HW,2013-11-24 18:52:00,
2013-11-24 10:57:00,48.8,35.6,30.06,ENE,68,1.3,2.2,60,0.00,,,0.00,WUHU216HW,2013-11-24 18:57:00,
2013-11-24 11:02:00,49.3,35.7,30.06,NNE,29,1.0,3.1,59,0.00,,,0.00,WUHU216HW,2013-11-24 19:02:00,
2013-11-24 11:07:00,49.9,36.1,30.06,NNE,23,1.8,3.1,59,0.00,,,0.00,WUHU216HW,2013-11-24 19:07:00,
2013-11-24 11:12:00,50.2,35.6,30.06,North,0,2.5,2.5,57,0.00,,,0.00,WUHU216HW,2013-11-24 19:12:00,
2013-11-24 11:17:00,50.8,35.1,30.06,North,4,2.6,3.4,55,0.00,,,0.00,WUHU216HW,2013-11-24 19:17:00,
2013-11-24 11:22:00,50.9,34.4,30.06,ENE,68,1.3,3.4,53,0.00,,,0.00,WUHU216HW,2013-11-24 19:22:00,
2013-11-24 11:27:00,51.3,34.3,30.06,NE,49,1.9,2.7,52,0.00,,,0.00,WUHU216HW,2013-11-24 19:27:00,
2013-11-24 11:32:00,51.5,34.8,30.06,NNE,23,2.7,2.7,53,0.00,,,0.00,WUHU216HW,2013-11-24 19:32:00,
2013-11-24 11:37:00,51.8,33.8,30.06,NE,45,2.5,2.9,50,0.00,,,0.00,WUHU216HW,2013-11-24 19:37:00,
2013-11-24 11:42:00,52.2,33.6,30.06,North,0,2.5,2.9,49,0.00,,,0.00,WUHU216HW,2013-11-24 19:42:00,
2013-11-24 11:47:00,52.6,33.9,30.06,NNE,12,2.2,2.9,49,0.00,,,0.00,WUHU216HW,2013-11-24 19:47:00,
2013-11-24 11:52:00,52.7,34.7,30.06,North,10,1.7,2.9,50,0.00,,,0.00,WUHU216HW,2013-11-24 19:52:00,
2013-11-24 11:57:00,53.1,35.0,30.06,NE,40,1.9,2.5,50,0.00,,,0.00,WUHU216HW,2013-11-24 19:57:00,
2013-11-24 12:02:00,53.3,35.7,30.06,NNE,23,3.4,3.8,51,0.00,,,0.00,WUHU216HW,2013-11-24 20:02:00,
2013-11-24 12:07:00,53.6,35.5,30.06,NNE,14,2.3,3.8,50,0.00,,,0.00,WUHU216HW,2013-11-24 20:07:00,
2013-11-24 12:12:00,54.2,34.8,30.06,North,0,3.1,3.4,48,0.00,,,0.00,WUHU216HW,2013-11-24 20:12:00,
2013-11-24 12:17:00,54.5,35.2,30.05,NNE,23,3.3,3.6,48,0.00,,,0.00,WUHU216HW,2013-11-24 20:17:00,
2013-11-24 12:22:00,54.9,36.0,30.05,North,359,1.5,3.6,49,0.00,,,0.00,WUHU216HW,2013-11-24 20:22:00,
2013-11-24 12:27:00,55.3,36.4,30.05,North,0,2.1,3.4,49,0.00,,,0.00,WUHU216HW,2013-11-24 20:27:00,
2013-11-24 12:32:00,55.4,36.6,30.05,NE,46,1.4,2.5,49,0.00,,,0.00,WUHU216HW,2013-11-24 20:32:00,
2013-11-24 12:37:00,55.6,37.3,30.06,SW,218,3.6,5.8,50,0.00,,,0.00,WUHU216HW,2013-11-24 20:37:00,
2013-11-24 12:42:00,55.6,37.3,30.06,SW,225,4.7,5.8,50,0.00,,,0.00,WUHU216HW,2013-11-24 20:42:00,
2013-11-24 12:47:00,55.4,37.5,30.06,West,270,3.8,4.7,51,0.00,,,0.00,WUHU216HW,2013-11-24 20:47:00,
2013-11-24 12:52:00,55.1,37.7,30.06,WSW,248,5.6,6.3,52,0.00,,,0.00,WUHU216HW,2013-11-24 20:52:00,
2013-11-24 12:57:00,55.1,38.6,30.06,WSW,256,2.1,6.3,54,0.00,,,0.00,WUHU216HW,2013-11-24 20:57:00,
2013-11-24 13:02:00,54.9,39.0,30.06,SW,225,4.0,6.0,55,0.00,,,0.00,WUHU216HW,2013-11-24 21:02:00,
2013-11-24 13:07:00,54.9,39.4,30.06,SW,225,4.0,4.0,56,0.00,,,0.00,WUHU216HW,2013-11-24 21:07:00,
2013-11-24 13:12:00,54.9,39.4,30.06,SW,218,3.9,4.5,56,0.00,,,0.00,WUHU216HW,2013-11-24 21:12:00,
2013-11-24 13:17:00,55.1,40.1,30.07,SSW,203,3.6,4.5,57,0.00,,,0.00,WUHU216HW,2013-11-24 21:17:00,
2013-11-24 13:22:00,54.9,39.9,30.07,WSW,246,3.4,4.5,57,0.00,,,0.00,WUHU216HW,2013-11-24 21:22:00,
2013-11-24 13:27:00,54.9,40.3,30.06,SSW,203,4.0,4.5,58,0.00,,,0.00,WUHU216HW,2013-11-24 21:27:00,
2013-11-24 13:32:00,54.9,40.3,30.07,SW,225,4.7,4.9,58,0.00,,,0.00,WUHU216HW,2013-11-24 21:32:00,
2013-11-24 13:37:00,55.1,41.0,30.07,SW,225,4.9,4.9,59,0.00,,,0.00,WUHU216HW,2013-11-24 21:37:00,
2013-11-24 13:42:00,55.1,41.0,30.07,SW,225,4.0,4.9,59,0.00,,,0.00,WUHU216HW,2013-11-24 21:42:00,
2013-11-24 13:47:00,55.1,41.0,30.07,SW,229,2.2,4.9,59,0.00,,,0.00,WUHU216HW,2013-11-24 21:47:00,
2013-11-24 13:52:00,55.1,41.4,30.07,SW,229,1.1,4.0,60,0.00,,,0.00,WUHU216HW,2013-11-24 21:52:00,
2013-11-24 13:57:00,55.1,41.0,30.07,SW,225,3.6,3.6,59,0.00,,,0.00,WUHU216HW,2013-11-24 21:57:00,
2013-11-24 14:02:00,55.1,41.0,30.07,SW,225,1.1,3.6,59,0.00,,,0.00,WUHU216HW,2013-11-24 22:02:00,
2013-11-24 14:07:00,55.1,41.0,30.07,SW,225,1.1,1.1,59,0.00,,,0.00,WUHU216HW,2013-11-24 22:07:00,
2013-11-24 14:26:00,55.1,41.0,30.07,WNW,293,0.0,0.0,59,0.00,,,0.00,WUHU216HW,2013-11-24 22:26:00,
2013-11-24 14:31:00,55.1,41.0,30.07,WNW,293,0.6,1.3,59,0.00,,,0.00,WUHU216HW,2013-11-24 22:31:00,
2013-11-24 14:36:00,54.9,41.7,30.07,WNW,293,1.8,1.8,61,0.00,,,0.00,WUHU216HW,2013-11-24 22:36:00,
2013-11-24 14:41:00,54.5,41.3,30.07,WSW,248,1.1,2.5,61,0.00,,,0.00,WUHU216HW,2013-11-24 22:41:00,
2013-11-24 14:46:00,54.4,41.2,30.07,WSW,248,0.2,2.5,61,0.00,,,0.00,WUHU216HW,2013-11-24 22:46:00,
2013-11-24 14:51:00,54.4,41.2,30.07,WSW,248,1.8,1.8,61,0.00,,,0.00,WUHU216HW,2013-11-24 22:51:00,
2013-11-24 14:56:00,54.0,40.5,30.07,WSW,257,1.9,3.4,60,0.00,,,0.00,WUHU216HW,2013-11-24 22:56:00,
2013-11-24 15:01:00,53.8,39.9,30.07,West,270,0.5,3.4,59,0.00,,,0.00,WUHU216HW,2013-11-24 23:01:00,
2013-11-24 15:06:00,53.8,41.9,30.07,West,270,2.5,3.4,64,0.00,,,0.00,WUHU216HW,2013-11-24 23:06:00,
2013-11-24 15:11:00,53.5,41.9,30.07,WSW,248,2.5,3.4,65,0.00,,,0.00,WUHU216HW,2013-11-24 23:11:00,
2013-11-24 15:16:00,53.3,41.0,30.07,WSW,248,1.3,2.7,63,0.00,,,0.00,WUHU216HW,2013-11-24 23:16:00,
2013-11-24 15:21:00,52.9,40.2,30.07,WNW,299,1.2,2.5,62,0.00,,,0.00,WUHU216HW,2013-11-24 23:21:00,
2013-11-24 15:26:00,52.9,39.8,30.08,NNW,338,0.2,1.6,61,0.00,,,0.00,WUHU216HW,2013-11-24 23:26:00,
2013-11-24 15:31:00,52.7,39.6,30.08,NNW,338,0.0,1.3,61,0.00,,,0.00,WUHU216HW,2013-11-24 23:31:00,
2013-11-24 15:36:00,52.6,39.5,30.07,NW,315,1.1,1.1,61,0.00,,,0.00,WUHU216HW,2013-11-24 23:36:00,
2013-11-24 15:41:00,52.4,39.3,30.07,West,270,1.6,1.8,61,0.00,,,0.00,WUHU216HW,2013-11-24 23:41:00,
2013-11-24 15:46:00,52.6,39.9,30.08,SW,231,1.5,2.2,62,0.00,,,0.00,WUHU216HW,2013-11-24 23:46:00,
2013-11-24 15:51:00,52.4,40.2,30.08,WSW,242,1.2,3.1,63,0.00,,,0.00,WUHU216HW,2013-11-24 23:51:00,
2013-11-24 15:56:00,52.2,40.0,30.08,SSW,203,1.8,3.1,63,0.00,,,0.00,WUHU216HW,2013-11-24 23:56:00,
2013-11-24 16:01:00,51.8,40.0,30.08,SSW,207,1.3,2.0,64,0.00,,,0.00,WUHU216HW,2013-11-25 00:01:00,
2013-11-24 16:06:00,51.7,39.9,30.09,SSW,203,0.2,1.8,64,0.00,,,0.00,WUHU216HW,2013-11-25 00:06:00,
2013-11-24 16:11:00,51.3,39.5,30.09,SSE,158,0.5,1.3,64,0.00,,,0.00,WUHU216HW,2013-11-25 00:11:00,
2013-11-24 16:16:00,50.9,39.2,30.09,SE,135,0.8,1.3,64,0.00,,,0.00,WUHU216HW,2013-11-25 00:16:00,
2013-11-24 16:21:00,50.8,39.0,30.08,SE,135,0.5,1.1,64,0.00,,,0.00,WUHU216HW,2013-11-25 00:21:00,
2013-11-24 16:26:00,50.6,38.8,30.08,ESE,113,1.4,1.8,64,0.00,,,0.00,WUHU216HW,2013-11-25 00:26:00,
2013-11-24 16:31:00,50.8,39.0,30.09,ENE,68,0.0,1.8,64,0.00,,,0.00,WUHU216HW,2013-11-25 00:31:00,
2013-11-24 16:36:00,50.6,39.3,30.09,ENE,68,0.0,1.1,65,0.00,,,0.00,WUHU216HW,2013-11-25 00:36:00,
2013-11-24 16:41:00,50.2,38.4,30.09,East,90,0.0,0.0,64,0.00,,,0.00,WUHU216HW,2013-11-25 00:41:00,
2013-11-24 16:46:00,50.0,38.4,30.09,East,90,0.0,0.0,64,0.00,,,0.00,WUHU216HW,2013-11-25 00:46:00,
2013-11-24 16:51:00,49.9,38.2,30.09,ESE,113,0.0,0.0,64,0.00,,,0.00,WUHU216HW,2013-11-25 00:51:00,
2013-11-24 16:56:00,49.3,37.6,30.09,SSW,203,0.0,0.0,64,0.00,,,0.00,WUHU216HW,2013-11-25 00:56:00,
2013-11-24 17:01:00,49.0,37.3,30.09,SW,219,2.7,4.7,64,0.00,,,0.00,WUHU216HW,2013-11-25 01:01:00,
2013-11-24 17:06:00,48.8,37.5,30.09,SSE,158,0.0,4.7,65,0.00,,,0.00,WUHU216HW,2013-11-25 01:06:00,
2013-11-24 17:11:00,48.6,37.7,30.09,SSE,158,1.6,2.0,66,0.00,,,0.00,WUHU216HW,2013-11-25 01:11:00,
2013-11-24 17:16:00,48.2,37.4,30.09,SSE,158,2.5,3.6,66,0.00,,,0.00,WUHU216HW,2013-11-25 01:16:00,
2013-11-24 17:21:00,47.9,37.5,30.09,SSE,158,1.8,3.6,67,0.00,,,0.00,WUHU216HW,2013-11-25 01:21:00,
2013-11-24 17:26:00,47.3,37.3,30.09,SE,135,4.3,4.3,68,0.00,,,0.00,WUHU216HW,2013-11-25 01:26:00,
2013-11-24 17:31:00,47.2,37.2,30.10,SE,135,2.2,4.3,68,0.00,,,0.00,WUHU216HW,2013-11-25 01:31:00,
2013-11-24 17:36:00,47.2,36.7,30.10,ENE,68,1.8,4.3,67,0.00,,,0.00,WUHU216HW,2013-11-25 01:36:00,
2013-11-24 17:41:00,46.8,36.8,30.10,ESE,120,2.0,2.5,68,0.00,,,0.00,WUHU216HW,2013-11-25 01:41:00,
2013-11-24 17:46:00,46.4,36.5,30.10,SE,135,1.3,2.5,68,0.00,,,0.00,WUHU216HW,2013-11-25 01:46:00,
2013-11-24 17:51:00,46.1,36.1,30.10,East,82,0.8,1.8,68,0.00,,,0.00,WUHU216HW,2013-11-25 01:51:00,
2013-11-24 17:56:00,45.7,35.7,30.10,East,90,0.0,1.1,68,0.00,,,0.00,WUHU216HW,2013-11-25 01:56:00,
2013-11-24 18:01:00,45.0,35.5,30.10,ESE,113,1.8,1.8,69,0.00,,,0.00,WUHU216HW,2013-11-25 02:01:00,
2013-11-24 18:05:00,44.6,35.1,30.10,SE,135,2.5,2.7,69,0.00,,,0.00,WUHU216HW,2013-11-25 02:05:00,
2013-11-24 18:11:00,44.3,35.1,30.11,SE,135,1.8,2.7,70,0.00,,,0.00,WUHU216HW,2013-11-25 02:11:00,
2013-11-24 18:16:00,43.7,34.7,30.11,East,90,2.5,2.7,70,0.00,,,0.00,WUHU216HW,2013-11-25 02:16:00,
2013-11-24 18:21:00,43.4,34.3,30.11,ESE,110,1.2,2.7,70,0.00,,,0.00,WUHU216HW,2013-11-25 02:21:00,
2013-11-24 18:26:00,43.2,34.2,30.11,ESE,113,1.3,2.5,70,0.00,,,0.00,WUHU216HW,2013-11-25 02:26:00,
2013-11-24 18:31:00,43.2,34.5,30.11,SE,135,2.5,2.7,71,0.00,,,0.00,WUHU216HW,2013-11-25 02:31:00,
2013-11-24 18:36:00,43.0,34.3,30.11,SSE,158,2.7,3.4,71,0.00,,,0.00,WUHU216HW,2013-11-25 02:36:00,
2013-11-24 18:41:00,43.0,34.3,30.11,SSE,158,2.1,3.4,71,0.00,,,0.00,WUHU216HW,2013-11-25 02:41:00,
2013-11-24 18:46:00,42.8,34.2,30.11,SE,135,1.8,2.7,71,0.00,,,0.00,WUHU216HW,2013-11-25 02:46:00,
2013-11-24 18:51:00,42.8,34.2,30.11,SE,135,1.6,2.0,71,0.00,,,0.00,WUHU216HW,2013-11-25 02:51:00,
2013-11-24 18:56:00,42.7,34.0,30.10,ESE,113,1.6,2.0,71,0.00,,,0.00,WUHU216HW,2013-11-25 02:56:00,
2013-11-24 19:00:00,42.3,33.7,30.11,SSE,158,2.9,2.9,71,0.00,,,0.00,WUHU216HW,2013-11-25 03:00:00,
2013-11-24 19:05:00,42.1,33.5,30.11,SSW,203,2.5,2.9,71,0.00,,,0.00,WUHU216HW,2013-11-25 03:05:00,
2013-11-24 19:10:00,42.1,33.5,30.11,South,177,1.1,2.9,71,0.00,,,0.00,WUHU216HW,2013-11-25 03:10:00,
2013-11-24 19:15:00,42.5,34.1,30.11,South,180,0.0,2.7,72,0.00,,,0.00,WUHU216HW,2013-11-25 03:15:00,
2013-11-24 19:20:00,42.7,34.3,30.11,East,88,1.6,2.5,72,0.00,,,0.00,WUHU216HW,2013-11-25 03:20:00,
2013-11-24 19:25:00,42.5,34.1,30.11,East,96,1.6,2.5,72,0.00,,,0.00,WUHU216HW,2013-11-25 03:25:00,
2013-11-24 19:30:00,42.3,33.9,30.11,SE,135,4.3,4.3,72,0.00,,,0.00,WUHU216HW,2013-11-25 03:30:00,
2013-11-24 19:35:00,42.1,33.8,30.11,SE,135,5.4,5.4,72,0.00,,,0.00,WUHU216HW,2013-11-25 03:35:00,
2013-11-24 19:40:00,42.5,34.1,30.12,SSE,158,5.4,5.6,72,0.00,,,0.00,WUHU216HW,2013-11-25 03:40:00,
2013-11-24 19:45:00,42.5,34.1,30.12,SE,135,5.0,5.6,72,0.00,,,0.00,WUHU216HW,2013-11-25 03:45:00,
2013-11-24 19:50:00,42.7,34.3,30.12,SE,135,5.1,6.0,72,0.00,,,0.00,WUHU216HW,2013-11-25 03:50:00,
2013-11-24 19:55:00,42.8,34.5,30.12,SE,135,4.7,6.0,72,0.00,,,0.00,WUHU216HW,2013-11-25 03:55:00,
2013-11-24 20:00:00,42.8,34.2,30.12,SE,146,4.1,5.8,71,0.00,,,0.00,WUHU216HW,2013-11-25 04:00:00,
2013-11-24 20:05:00,43.0,34.3,30.12,SE,135,4.7,5.1,71,0.00,,,0.00,WUHU216HW,2013-11-25 04:05:00,
2013-11-24 20:10:00,42.8,34.2,30.11,ESE,113,3.1,4.7,71,0.00,,,0.00,WUHU216HW,2013-11-25 04:10:00,
2013-11-24 20:15:00,42.5,33.5,30.11,ESE,113,1.3,4.7,70,0.00,,,0.00,WUHU216HW,2013-11-25 04:15:00,
2013-11-24 20:20:00,41.9,33.3,30.12,East,96,1.3,2.5,71,0.00,,,0.00,WUHU216HW,2013-11-25 04:20:00,
2013-11-24 20:25:00,41.6,33.0,30.12,ESE,104,1.9,2.5,71,0.00,,,0.00,WUHU216HW,2013-11-25 04:25:00,
2013-11-24 20:30:00,41.4,32.8,30.12,South,180,2.9,3.6,71,0.00,,,0.00,WUHU216HW,2013-11-25 04:30:00,
2013-11-24 20:35:00,41.4,32.8,30.12,SSE,158,2.5,3.6,71,0.00,,,0.00,WUHU216HW,2013-11-25 04:35:00,
2013-11-24 20:40:00,41.4,32.8,30.12,South,183,4.5,4.7,71,0.00,,,0.00,WUHU216HW,2013-11-25 04:40:00,
2013-11-24 20:45:00,41.4,32.8,30.12,South,169,4.3,5.8,71,0.00,,,0.00,WUHU216HW,2013-11-25 04:45:00,
2013-11-24 20:50:00,41.9,33.3,30.12,SSE,158,4.7,5.8,71,0.00,,,0.00,WUHU216HW,2013-11-25 04:50:00,
2013-11-24 20:55:00,41.9,33.3,30.13,SE,141,4.9,5.6,71,0.00,,,0.00,WUHU216HW,2013-11-25 04:55:00,
2013-11-24 21:00:00,42.1,33.5,30.13,SSE,158,4.3,5.4,71,0.00,,,0.00,WUHU216HW,2013-11-25 05:00:00,
2013-11-24 21:01:00,42.1,33.5,30.13,SSE,155,4.1,5.4,71,0.00,,,0.00,WUHU216HW,2013-11-25 05:01:00,
2013-11-24 21:02:00,41.9,33.3,30.13,SE,135,4.3,5.4,71,0.00,,,0.00,WUHU216HW,2013-11-25 05:02:00,
2013-11-24 21:07:00,41.9,33.3,30.14,SE,139,4.8,5.6,71,0.00,,,0.00,WUHU216HW,2013-11-25 05:07:00,
2013-11-24 21:11:00,41.8,33.1,30.13,SSE,158,4.9,5.8,71,0.00,,,0.00,WUHU216HW,2013-11-25 05:11:00,
2013-11-24 21:17:00,41.8,33.1,30.13,SE,135,5.4,6.3,71,0.00,,,0.00,WUHU216HW,2013-11-25 05:17:00,
2013-11-24 21:22:00,41.8,33.1,30.13,SE,131,5.1,7.6,71,0.00,,,0.00,WUHU216HW,2013-11-25 05:22:00,
2013-11-24 21:27:00,41.8,33.1,30.14,SE,135,5.5,7.6,71,0.00,,,0.00,WUHU216HW,2013-11-25 05:27:00,
2013-11-24 21:32:00,41.8,33.1,30.13,SE,135,4.8,6.5,71,0.00,,,0.00,WUHU216HW,2013-11-25 05:32:00,
2013-11-24 21:37:00,41.6,33.0,30.13,SE,140,4.0,6.5,71,0.00,,,0.00,WUHU216HW,2013-11-25 05:37:00,
2013-11-24 21:42:00,41.4,32.8,30.13,SSE,158,3.6,5.1,71,0.00,,,0.00,WUHU216HW,2013-11-25 05:42:00,
2013-11-24 21:47:00,41.4,32.8,30.14,South,180,4.0,4.7,71,0.00,,,0.00,WUHU216HW,2013-11-25 05:47:00,
2013-11-24 21:52:00,41.2,32.6,30.14,SE,135,3.6,5.4,71,0.00,,,0.00,WUHU216HW,2013-11-25 05:52:00,
2013-11-24 21:57:00,41.0,32.4,30.14,SE,135,5.6,5.6,71,0.00,,,0.00,WUHU216HW,2013-11-25 05:57:00,
2013-11-24 22:02:00,41.0,32.4,30.14,SE,135,4.7,6.9,71,0.00,,,0.00,WUHU216HW,2013-11-25 06:02:00,
2013-11-24 22:07:00,40.9,32.2,30.14,SSE,151,5.0,6.9,71,0.00,,,0.00,WUHU216HW,2013-11-25 06:07:00,
2013-11-24 22:12:00,41.0,32.4,30.14,SE,135,3.6,6.0,71,0.00,,,0.00,WUHU216HW,2013-11-25 06:12:00,
2013-11-24 22:17:00,40.9,32.2,30.14,SSE,161,3.6,5.4,71,0.00,,,0.00,WUHU216HW,2013-11-25 06:17:00,
2013-11-24 22:22:00,40.9,32.2,30.14,SSE,149,3.9,5.1,71,0.00,,,0.00,WUHU216HW,2013-11-25 06:22:00,
2013-11-24 22:27:00,40.7,32.1,30.14,SE,140,3.9,5.1,71,0.00,,,0.00,WUHU216HW,2013-11-25 06:27:00,
2013-11-24 22:32:00,40.7,32.1,30.14,SSE,158,4.0,5.1,71,0.00,,,0.00,WUHU216HW,2013-11-25 06:32:00,
2013-11-24 22:37:00,40.7,32.1,30.14,SSE,158,5.1,5.1,71,0.00,,,0.00,WUHU216HW,2013-11-25 06:37:00,
2013-11-24 22:42:00,40.5,31.9,30.14,SE,135,4.4,5.4,71,0.00,,,0.00,WUHU216HW,2013-11-25 06:42:00,
2013-11-24 22:47:00,40.3,31.7,30.15,SE,135,5.8,5.8,71,0.00,,,0.00,WUHU216HW,2013-11-25 06:47:00,
2013-11-24 22:52:00,40.3,31.7,30.15,SSE,147,4.7,6.3,71,0.00,,,0.00,WUHU216HW,2013-11-25 06:52:00,
2013-11-24 22:57:00,40.3,31.7,30.14,SSE,163,3.7,6.3,71,0.00,,,0.00,WUHU216HW,2013-11-25 06:57:00,
2013-11-24 23:02:00,40.3,31.7,30.14,SSE,148,4.0,5.4,71,0.00,,,0.00,WUHU216HW,2013-11-25 07:02:00,
2013-11-24 23:07:00,40.3,31.7,30.14,SE,134,4.9,5.6,71,0.00,,,0.00,WUHU216HW,2013-11-25 07:07:00,
2013-11-24 23:12:00,40.3,31.7,30.15,SE,135,4.5,5.6,71,0.00,,,0.00,WUHU216HW,2013-11-25 07:12:00,
2013-11-24 23:17:00,40.3,31.7,30.14,SE,135,4.7,5.6,71,0.00,,,0.00,WUHU216HW,2013-11-25 07:17:00,
2013-11-24 23:22:00,40.1,31.5,30.15,SE,143,5.0,5.4,71,0.00,,,0.00,WUHU216HW,2013-11-25 07:22:00,
2013-11-24 23:27:00,40.1,31.5,30.15,SE,135,5.4,6.0,71,0.00,,,0.00,WUHU216HW,2013-11-25 07:27:00,
2013-11-24 23:32:00,40.1,31.5,30.15,SE,141,5.9,7.2,71,0.00,,,0.00,WUHU216HW,2013-11-25 07:32:00,
2013-11-24 23:37:00,40.3,31.3,30.15,SSE,158,6.3,7.2,70,0.00,,,0.00,WUHU216HW,2013-11-25 07:37:00,
2013-11-24 23:42:00,40.3,31.3,30.15,SE,135,5.6,7.4,70,0.00,,,0.00,WUHU216HW,2013-11-25 07:42:00,
2013-11-24 23:47:00,40.1,31.1,30.15,SE,135,5.8,7.4,70,0.00,,,0.00,WUHU216HW,2013-11-25 07:47:00,
2013-11-24 23:52:00,40.1,31.1,30.15,SE,132,5.6,7.2,70,0.00,,,0.00,WUHU216HW,2013-11-25 07:52:00,
2013-11-24 23:57:00,40.0,31.0,30.16,SE,135,5.1,7.2,70,0.00,,,0.00,WUHU216HW,2013-11-25 07:57:00,